Wetterdaten: Sonntag, 27.06.2010
Datum Zeit Temp. Innen Temp. Aussen UV X Diff Temp. Feuchte Inne Feuchte Auss Sonnenschein Luftdruck Regen ab 0,1 Wind Sonnenschein Windben
27.06.2010 00:03 24,5 C 19,6 C 0,1 UV-I 0,0 C 47 % 55 % 0 % 1020,6 hPa 0,0 l/m 0,0 km/h (0 Bft) 0 min 0,0 km/h (0 Bft)
27.06.2010 00:08 24,5 C 19,5 C 0,1 UV-I 0,0 C 47 % 55 % 0 % 1020,6 hPa 0,0 l/m 0,0 km/h (0 Bft) 0 min 0,0 km/h (0 Bft)
27.06.2010 00:13 24,5 C 19,5 C 0,1 UV-I 0,0 C 47 % 56 % 0 % 1020,8 hPa 0,0 l/m 0,0 km/h (0 Bft) 0 min 0,0 km/h (0 Bft)
27.06.2010 00:18 24,5 C 19,2 C 0,1 UV-I 0,0 C 47 % 56 % 0 % 1020,8 hPa 0,0 l/m 0,0 km/h (0 Bft) 0 min 0,0 km/h (0 Bft)
27.06.2010 00:23 24,4 C 19,3 C 0,1 UV-I 0,0 C 48 % 56 % 0 % 1020,8 hPa 0,0 l/m 0,0 km/h (0 Bft) 0 min 0,0 km/h (0 Bft)
27.06.2010 00:28 24,4 C 19,1 C 0,1 UV-I 0,0 C 48 % 57 % 0 % 1020,8 hPa 0,0 l/m 0,0 km/h (0 Bft) 0 min 0,0 km/h (0 Bft)
27.06.2010 00:33 24,4 C 19,0 C 0,1 UV-I 0,0 C 48 % 57 % 0 % 1021,1 hPa 0,0 l/m 0,0 km/h (0 Bft) 0 min 0,0 km/h (0 Bft)
27.06.2010 00:38 24,4 C 18,9 C 0,1 UV-I 0,0 C 48 % 58 % 0 % 1021,1 hPa 0,0 l/m 0,0 km/h (0 Bft) 0 min 0,0 km/h (0 Bft)
27.06.2010 00:43 24,4 C 18,7 C 0,1 UV-I 0,0 C 48 % 58 % 0 % 1021,1 hPa 0,0 l/m 0,0 km/h (0 Bft) 0 min 0,0 km/h (0 Bft)
27.06.2010 00:48 24,4 C 18,5 C 0,1 UV-I 0,0 C 48 % 58 % 0 % 1021,1 hPa 0,0 l/m 0,0 km/h (0 Bft) 0 min 0,0 km/h (0 Bft)
27.06.2010 00:53 24,2 C 18,4 C 0,1 UV-I 0,0 C 48 % 59 % 0 % 1020,9 hPa 0,0 l/m 0,0 km/h (0 Bft) 0 min 0,0 km/h (0 Bft)
27.06.2010 00:58 24,2 C 18,2 C 0,1 UV-I 0,0 C 48 % 60 % 0 % 1020,9 hPa 0,0 l/m 0,0 km/h (0 Bft) 0 min 0,0 km/h (0 Bft)
27.06.2010 01:03 24,3 C 18,0 C 0,1 UV-I 0,0 C 48 % 60 % 0 % 1020,9 hPa 0,0 l/m 0,0 km/h (0 Bft) 0 min 0,0 km/h (0 Bft)
27.06.2010 01:08 24,3 C 17,9 C 0,1 UV-I 0,0 C 48 % 61 % 0 % 1020,9 hPa 0,0 l/m 0,0 km/h (0 Bft) 0 min 0,0 km/h (0 Bft)
27.06.2010 01:13 24,3 C 17,7 C 0,1 UV-I 0,0 C 48 % 61 % 0 % 1020,8 hPa 0,0 l/m 0,0 km/h (0 Bft) 0 min 0,0 km/h (0 Bft)
27.06.2010 01:18 24,2 C 17,6 C 0,1 UV-I 0,0 C 48 % 62 % 0 % 1020,8 hPa 0,0 l/m 0,0 km/h (0 Bft) 0 min 0,0 km/h (0 Bft)
27.06.2010 01:23 24,2 C 17,5 C 0,1 UV-I 0,0 C 48 % 63 % 0 % 1020,8 hPa 0,0 l/m 0,0 km/h (0 Bft) 0 min 0,0 km/h (0 Bft)
27.06.2010 01:28 24,2 C 17,2 C 0,1 UV-I 0,0 C 48 % 63 % 0 % 1020,8 hPa 0,0 l/m 0,0 km/h (0 Bft) 0 min 0,0 km/h (0 Bft)
27.06.2010 01:33 24,2 C 17,1 C 0,1 UV-I 0,0 C 48 % 64 % 0 % 1020,9 hPa 0,0 l/m 0,0 km/h (0 Bft) 0 min 0,0 km/h (0 Bft)
27.06.2010 01:38 24,2 C 17,0 C 0,1 UV-I 0,0 C 48 % 64 % 0 % 1020,9 hPa 0,0 l/m 0,0 km/h (0 Bft) 0 min 0,0 km/h (0 Bft)
27.06.2010 01:43 24,1 C 16,8 C 0,1 UV-I 0,0 C 48 % 65 % 0 % 1020,9 hPa 0,0 l/m 0,0 km/h (0 Bft) 0 min 0,0 km/h (0 Bft)
27.06.2010 01:48 24,1 C 16,7 C 0,1 UV-I 0,0 C 48 % 65 % 0 % 1020,9 hPa 0,0 l/m 0,0 km/h (0 Bft) 0 min 0,0 km/h (0 Bft)
27.06.2010 01:53 24,1 C 16,7 C 0,1 UV-I 0,0 C 48 % 66 % 0 % 1020,9 hPa 0,0 l/m 0,0 km/h (0 Bft) 0 min 0,0 km/h (0 Bft)
27.06.2010 01:58 24,1 C 16,5 C 0,1 UV-I 0,0 C 48 % 67 % 0 % 1020,9 hPa 0,0 l/m 0,0 km/h (0 Bft) 0 min 0,0 km/h (0 Bft)
27.06.2010 02:03 24,0 C 16,3 C 0,1 UV-I 0,0 C 48 % 67 % 0 % 1020,9 hPa 0,0 l/m 0,0 km/h (0 Bft) 0 min 0,0 km/h (0 Bft)
27.06.2010 02:08 24,0 C 16,2 C 0,1 UV-I 0,0 C 48 % 68 % 0 % 1020,9 hPa 0,0 l/m 0,0 km/h (0 Bft) 0 min 0,0 km/h (0 Bft)
27.06.2010 02:13 24,0 C 16,1 C 0,1 UV-I 0,0 C 48 % 68 % 0 % 1020,4 hPa 0,0 l/m 0,0 km/h (0 Bft) 0 min 0,0 km/h (0 Bft)
27.06.2010 02:18 24,0 C 16,0 C 0,1 UV-I 0,0 C 49 % 69 % 0 % 1020,4 hPa 0,0 l/m 0,0 km/h (0 Bft) 0 min 0,0 km/h (0 Bft)
27.06.2010 02:23 24,0 C 15,9 C 0,1 UV-I 0,0 C 49 % 69 % 0 % 1020,4 hPa 0,0 l/m 0,0 km/h (0 Bft) 0 min 0,0 km/h (0 Bft)
27.06.2010 02:28 24,0 C 15,9 C 0,1 UV-I 0,0 C 49 % 70 % 0 % 1020,4 hPa 0,0 l/m 0,0 km/h (0 Bft) 0 min 0,0 km/h (0 Bft)
27.06.2010 02:33 23,9 C 15,9 C 0,1 UV-I 0,0 C 49 % 70 % 0 % 1020,7 hPa 0,0 l/m 0,0 km/h (0 Bft) 0 min 0,0 km/h (0 Bft)
27.06.2010 02:38 23,9 C 15,7 C 0,1 UV-I 0,0 C 49 % 70 % 0 % 1020,7 hPa 0,0 l/m 0,0 km/h (0 Bft) 0 min 0,0 km/h (0 Bft)
27.06.2010 02:43 23,9 C 15,7 C 0,1 UV-I 0,0 C 49 % 70 % 0 % 1020,7 hPa 0,0 l/m 0,0 km/h (0 Bft) 0 min 0,0 km/h (0 Bft)
27.06.2010 02:48 23,9 C 15,5 C 0,1 UV-I 0,0 C 49 % 71 % 0 % 1020,7 hPa 0,0 l/m 0,0 km/h (0 Bft) 0 min 0,0 km/h (0 Bft)
27.06.2010 02:53 23,8 C 15,5 C 0,1 UV-I 0,0 C 49 % 72 % 0 % 1020,9 hPa 0,0 l/m 0,0 km/h (0 Bft) 0 min 0,0 km/h (0 Bft)
27.06.2010 02:58 23,8 C 15,3 C 0,1 UV-I 0,0 C 49 % 72 % 0 % 1020,9 hPa 0,0 l/m 0,0 km/h (0 Bft) 0 min 0,0 km/h (0 Bft)
27.06.2010 03:03 23,8 C 15,2 C 0,1 UV-I 0,0 C 49 % 72 % 0 % 1020,9 hPa 0,0 l/m 0,0 km/h (0 Bft) 0 min 0,0 km/h (0 Bft)
27.06.2010 03:08 23,8 C 15,1 C 0,1 UV-I 0,0 C 49 % 73 % 0 % 1020,9 hPa 0,0 l/m 0,0 km/h (0 Bft) 0 min 0,0 km/h (0 Bft)
27.06.2010 03:13 23,8 C 15,1 C 0,1 UV-I 0,0 C 49 % 73 % 0 % 1020,6 hPa 0,0 l/m 0,0 km/h (0 Bft) 0 min 0,0 km/h (0 Bft)
27.06.2010 03:18 23,7 C 14,9 C 0,1 UV-I 0,0 C 49 % 74 % 0 % 1020,6 hPa 0,0 l/m 0,0 km/h (0 Bft) 0 min 0,0 km/h (0 Bft)
27.06.2010 03:23 23,7 C 14,9 C 0,1 UV-I 0,0 C 49 % 74 % 0 % 1020,6 hPa 0,0 l/m 0,0 km/h (0 Bft) 0 min 0,0 km/h (0 Bft)
27.06.2010 03:28 23,7 C 14,9 C 0,1 UV-I 0,0 C 49 % 74 % 0 % 1020,6 hPa 0,0 l/m 0,0 km/h (0 Bft) 0 min 0,0 km/h (0 Bft)
27.06.2010 03:33 23,7 C 14,8 C 0,1 UV-I 0,0 C 49 % 75 % 0 % 1020,6 hPa 0,0 l/m 0,0 km/h (0 Bft) 0 min 0,0 km/h (0 Bft)
27.06.2010 03:38 23,6 C 14,6 C 0,1 UV-I 0,0 C 49 % 75 % 0 % 1020,6 hPa 0,0 l/m 0,0 km/h (0 Bft) 0 min 0,0 km/h (0 Bft)
27.06.2010 03:43 23,6 C 14,7 C 0,1 UV-I 0,0 C 49 % 75 % 0 % 1020,6 hPa 0,0 l/m 0,0 km/h (0 Bft) 0 min 0,0 km/h (0 Bft)
27.06.2010 03:48 23,6 C 14,5 C 0,1 UV-I 0,0 C 49 % 76 % 0 % 1020,6 hPa 0,0 l/m 0,0 km/h (0 Bft) 0 min 0,0 km/h (0 Bft)
27.06.2010 03:53 23,6 C 14,5 C 0,1 UV-I 0,0 C 49 % 76 % 0 % 1020,8 hPa 0,0 l/m 0,0 km/h (0 Bft) 0 min 0,0 km/h (0 Bft)
27.06.2010 03:58 23,6 C 14,4 C 0,1 UV-I 0,0 C 50 % 77 % 0 % 1020,8 hPa 0,0 l/m 0,0 km/h (0 Bft) 0 min 0,0 km/h (0 Bft)
27.06.2010 04:03 23,6 C 14,4 C 0,1 UV-I 0,0 C 50 % 77 % 0 % 1020,8 hPa 0,0 l/m 0,0 km/h (0 Bft) 0 min 0,0 km/h (0 Bft)
27.06.2010 04:08 23,6 C 14,3 C 0,1 UV-I 0,0 C 50 % 77 % 0 % 1020,8 hPa 0,0 l/m 0,0 km/h (0 Bft) 0 min 0,0 km/h (0 Bft)
27.06.2010 04:13 23,6 C 14,3 C 0,1 UV-I 0,0 C 50 % 77 % 0 % 1020,8 hPa 0,0 l/m 0,0 km/h (0 Bft) 0 min 0,0 km/h (0 Bft)
27.06.2010 04:18 23,5 C 14,3 C 0,1 UV-I 0,0 C 50 % 77 % 0 % 1020,8 hPa 0,0 l/m 0,0 km/h (0 Bft) 0 min 0,0 km/h (0 Bft)
27.06.2010 04:20 23,5 C 14,3 C 0,1 UV-I 0,0 C 50 % 77 % 0 % 1020,8 hPa 0,0 l/m 0,0 km/h (0 Bft) 0 min 0,0 km/h (0 Bft)
27.06.2010 04:22 23,5 C 14,3 C 0,1 UV-I 0,0 C 50 % 77 % 0 % 1020,8 hPa 0,0 l/m 0,0 km/h (0 Bft) 0 min 0,0 km/h (0 Bft)
27.06.2010 04:24 23,5 C 14,2 C 0,1 UV-I 0,0 C 50 % 77 % 0 % 1020,8 hPa 0,0 l/m 0,0 km/h (0 Bft) 0 min 0,0 km/h (0 Bft)
27.06.2010 04:26 23,5 C 14,1 C 0,1 UV-I 0,0 C 50 % 77 % 0 % 1020,8 hPa 0,0 l/m 0,0 km/h (0 Bft) 0 min 0,0 km/h (0 Bft)
27.06.2010 04:28 23,5 C 14,1 C 0,1 UV-I 0,0 C 50 % 77 % 0 % 1020,8 hPa 0,0 l/m 0,0 km/h (0 Bft) 0 min 0,0 km/h (0 Bft)
27.06.2010 04:30 23,5 C 14,0 C 0,1 UV-I 0,0 C 50 % 77 % 0 % 1020,8 hPa 0,0 l/m 0,0 km/h (0 Bft) 0 min 0,0 km/h (0 Bft)
27.06.2010 04:32 23,5 C 14,0 C 0,1 UV-I 0,0 C 50 % 77 % 0 % 1020,9 hPa 0,0 l/m 0,0 km/h (0 Bft) 0 min 0,0 km/h (0 Bft)
27.06.2010 04:34 23,5 C 14,0 C 0,1 UV-I 0,0 C 50 % 77 % 0 % 1020,9 hPa 0,0 l/m 0,0 km/h (0 Bft) 0 min 0,0 km/h (0 Bft)
27.06.2010 04:36 23,5 C 14,0 C 0,1 UV-I 0,0 C 50 % 77 % 0 % 1020,9 hPa 0,0 l/m 0,0 km/h (0 Bft) 0 min 0,0 km/h (0 Bft)
27.06.2010 04:38 23,4 C 13,9 C 0,1 UV-I 0,0 C 50 % 77 % 0 % 1020,9 hPa 0,0 l/m 0,0 km/h (0 Bft) 0 min 0,0 km/h (0 Bft)
27.06.2010 04:40 23,4 C 13,9 C 0,1 UV-I 0,0 C 50 % 77 % 0 % 1020,9 hPa 0,0 l/m 0,0 km/h (0 Bft) 0 min 0,0 km/h (0 Bft)
27.06.2010 04:42 23,4 C 13,9 C 0,1 UV-I 0,0 C 50 % 77 % 0 % 1020,9 hPa 0,0 l/m 0,0 km/h (0 Bft) 0 min 0,0 km/h (0 Bft)
27.06.2010 04:44 23,4 C 13,8 C 0,1 UV-I 0,0 C 50 % 77 % 0 % 1020,9 hPa 0,0 l/m 0,0 km/h (0 Bft) 0 min 0,0 km/h (0 Bft)
27.06.2010 04:46 23,4 C 13,8 C 0,1 UV-I 0,0 C 50 % 77 % 0 % 1020,9 hPa 0,0 l/m 0,0 km/h (0 Bft) 0 min 0,0 km/h (0 Bft)
27.06.2010 04:48 23,4 C 13,9 C 0,1 UV-I 0,0 C 50 % 77 % 0 % 1020,9 hPa 0,0 l/m 0,0 km/h (0 Bft) 0 min 0,0 km/h (0 Bft)
27.06.2010 04:50 23,4 C 13,9 C 0,1 UV-I 0,0 C 50 % 78 % 0 % 1020,9 hPa 0,0 l/m 0,0 km/h (0 Bft) 0 min 0,0 km/h (0 Bft)
27.06.2010 04:52 23,4 C 13,9 C 0,1 UV-I 0,0 C 50 % 77 % 0 % 1020,9 hPa 0,0 l/m 0,0 km/h (0 Bft) 0 min 0,0 km/h (0 Bft)
27.06.2010 04:54 23,4 C 13,9 C 0,1 UV-I 0,0 C 50 % 77 % 0 % 1020,9 hPa 0,0 l/m 0,0 km/h (0 Bft) 0 min 0,0 km/h (0 Bft)
27.06.2010 04:56 23,4 C 13,9 C 0,1 UV-I 0,0 C 50 % 77 % 0 % 1020,9 hPa 0,0 l/m 0,0 km/h (0 Bft) 0 min 0,0 km/h (0 Bft)
27.06.2010 04:58 23,4 C 13,9 C 0,1 UV-I 0,0 C 50 % 77 % 0 % 1020,9 hPa 0,0 l/m 0,0 km/h (0 Bft) 0 min 0,0 km/h (0 Bft)
27.06.2010 05:00 23,4 C 13,9 C 0,1 UV-I 0,0 C 50 % 78 % 0 % 1020,9 hPa 0,0 l/m 0,0 km/h (0 Bft) 0 min 0,0 km/h (0 Bft)
27.06.2010 05:02 23,4 C 13,9 C 0,1 UV-I 0,0 C 50 % 77 % 0 % 1020,9 hPa 0,0 l/m 0,0 km/h (0 Bft) 0 min 0,0 km/h (0 Bft)
27.06.2010 05:04 23,2 C 13,8 C 0,1 UV-I 0,0 C 50 % 78 % 0 % 1020,9 hPa 0,0 l/m 0,0 km/h (0 Bft) 0 min 0,0 km/h (0 Bft)
27.06.2010 05:06 23,2 C 13,8 C 0,1 UV-I 0,0 C 50 % 78 % 0 % 1020,9 hPa 0,0 l/m 0,0 km/h (0 Bft) 0 min 0,0 km/h (0 Bft)
27.06.2010 05:08 23,2 C 13,8 C 0,1 UV-I 0,0 C 50 % 78 % 0 % 1020,9 hPa 0,0 l/m 0,0 km/h (0 Bft) 0 min 0,0 km/h (0 Bft)
27.06.2010 05:10 23,2 C 13,7 C 0,1 UV-I 0,0 C 50 % 78 % 0 % 1020,9 hPa 0,0 l/m 0,0 km/h (0 Bft) 0 min 0,0 km/h (0 Bft)
27.06.2010 05:12 23,2 C 13,7 C 0,1 UV-I 0,0 C 50 % 78 % 0 % 1021,1 hPa 0,0 l/m 0,0 km/h (0 Bft) 0 min 0,0 km/h (0 Bft)
27.06.2010 05:14 23,2 C 13,6 C 0,1 UV-I 0,0 C 50 % 78 % 0 % 1021,1 hPa 0,0 l/m 0,0 km/h (0 Bft) 0 min 0,0 km/h (0 Bft)
27.06.2010 05:16 23,2 C 13,6 C 0,1 UV-I 0,0 C 50 % 78 % 0 % 1021,1 hPa 0,0 l/m 0,0 km/h (0 Bft) 0 min 0,0 km/h (0 Bft)
27.06.2010 05:18 23,2 C 13,6 C 0,1 UV-I 0,0 C 50 % 78 % 0 % 1021,1 hPa 0,0 l/m 0,0 km/h (0 Bft) 0 min 0,0 km/h (0 Bft)
27.06.2010 05:20 23,3 C 13,7 C 0,1 UV-I 0,0 C 50 % 78 % 0 % 1021,1 hPa 0,0 l/m 0,0 km/h (0 Bft) 0 min 0,0 km/h (0 Bft)
27.06.2010 05:24 23,3 C 13,6 C 0,2 UV-I 0,0 C 50 % 78 % 0 % 1021,1 hPa 0,0 l/m 0,0 km/h (0 Bft) 0 min 0,0 km/h (0 Bft)
27.06.2010 05:26 23,3 C 13,6 C 0,2 UV-I 0,0 C 50 % 78 % 0 % 1021,1 hPa 0,0 l/m 0,0 km/h (0 Bft) 0 min 0,0 km/h (0 Bft)
27.06.2010 05:28 23,2 C 13,5 C 0,2 UV-I 0,0 C 50 % 78 % 0 % 1021,1 hPa 0,0 l/m 0,0 km/h (0 Bft) 0 min 0,0 km/h (0 Bft)
27.06.2010 05:30 23,2 C 13,6 C 0,2 UV-I 0,0 C 50 % 78 % 0 % 1021,1 hPa 0,0 l/m 0,0 km/h (0 Bft) 0 min 0,0 km/h (0 Bft)
27.06.2010 05:32 23,3 C 13,5 C 0,2 UV-I 0,0 C 50 % 78 % 0 % 1021,2 hPa 0,0 l/m 0,0 km/h (0 Bft) 0 min 0,0 km/h (0 Bft)
27.06.2010 05:34 23,2 C 13,5 C 0,2 UV-I 0,0 C 50 % 78 % 0 % 1021,2 hPa 0,0 l/m 0,0 km/h (0 Bft) 0 min 0,0 km/h (0 Bft)
27.06.2010 05:36 23,2 C 13,5 C 0,2 UV-I 0,0 C 50 % 79 % 0 % 1021,2 hPa 0,0 l/m 0,0 km/h (0 Bft) 0 min 0,0 km/h (0 Bft)
27.06.2010 05:38 23,2 C 13,5 C 0,2 UV-I 0,0 C 50 % 79 % 0 % 1021,2 hPa 0,0 l/m 0,0 km/h (0 Bft) 0 min 0,0 km/h (0 Bft)
27.06.2010 05:40 23,2 C 13,5 C 0,2 UV-I 0,0 C 50 % 79 % 0 % 1021,2 hPa 0,0 l/m 0,0 km/h (0 Bft) 0 min 0,0 km/h (0 Bft)
27.06.2010 05:42 23,2 C 13,5 C 0,3 UV-I 0,0 C 50 % 79 % 0 % 1021,2 hPa 0,0 l/m 0,0 km/h (0 Bft) 0 min 0,0 km/h (0 Bft)
27.06.2010 05:44 23,2 C 13,5 C 0,3 UV-I 0,0 C 50 % 79 % 0 % 1021,2 hPa 0,0 l/m 0,0 km/h (0 Bft) 0 min 0,0 km/h (0 Bft)
27.06.2010 05:46 23,2 C 13,5 C 0,3 UV-I 0,0 C 50 % 79 % 0 % 1021,2 hPa 0,0 l/m 0,0 km/h (0 Bft) 0 min 0,0 km/h (0 Bft)
27.06.2010 05:48 23,2 C 13,3 C 0,4 UV-I 0,0 C 50 % 79 % 0 % 1021,2 hPa 0,0 l/m 0,0 km/h (0 Bft) 0 min 0,0 km/h (0 Bft)
27.06.2010 05:50 23,2 C 13,3 C 0,4 UV-I 0,0 C 50 % 79 % 0 % 1021,2 hPa 0,0 l/m 0,0 km/h (0 Bft) 0 min 0,0 km/h (0 Bft)
27.06.2010 05:52 23,2 C 13,4 C 0,4 UV-I 0,0 C 50 % 80 % 0 % 1021,2 hPa 0,0 l/m 0,0 km/h (0 Bft) 0 min 0,0 km/h (0 Bft)
27.06.2010 05:54 23,2 C 13,4 C 0,4 UV-I 0,0 C 50 % 80 % 0 % 1021,2 hPa 0,0 l/m 0,0 km/h (0 Bft) 0 min 0,0 km/h (0 Bft)
27.06.2010 05:56 23,2 C 13,4 C 0,4 UV-I 0,0 C 50 % 80 % 0 % 1021,2 hPa 0,0 l/m 0,0 km/h (0 Bft) 0 min 0,0 km/h (0 Bft)
27.06.2010 05:58 23,2 C 13,4 C 0,4 UV-I 0,0 C 50 % 80 % 0 % 1021,2 hPa 0,0 l/m 0,0 km/h (0 Bft) 0 min 0,0 km/h (0 Bft)
27.06.2010 06:00 23,2 C 13,3 C 0,4 UV-I 0,0 C 50 % 80 % 0 % 1021,2 hPa 0,0 l/m 0,0 km/h (0 Bft) 0 min 0,0 km/h (0 Bft)
27.06.2010 06:02 23,2 C 13,4 C 0,5 UV-I 0,0 C 50 % 80 % 0 % 1021,2 hPa 0,0 l/m 0,0 km/h (0 Bft) 0 min 0,0 km/h (0 Bft)
27.06.2010 06:04 23,2 C 13,4 C 0,5 UV-I 0,0 C 50 % 80 % 0 % 1021,2 hPa 0,0 l/m 0,0 km/h (0 Bft) 0 min 0,0 km/h (0 Bft)
27.06.2010 06:06 23,2 C 13,5 C 0,5 UV-I 0,0 C 50 % 80 % 0 % 1021,2 hPa 0,0 l/m 0,0 km/h (0 Bft) 0 min 0,0 km/h (0 Bft)
27.06.2010 06:08 23,2 C 13,4 C 0,6 UV-I 0,0 C 50 % 80 % 0 % 1021,2 hPa 0,0 l/m 0,0 km/h (0 Bft) 0 min 0,0 km/h (0 Bft)
27.06.2010 06:10 23,2 C 13,5 C 0,6 UV-I 0,0 C 50 % 80 % 0 % 1021,2 hPa 0,0 l/m 0,0 km/h (0 Bft) 0 min 0,0 km/h (0 Bft)
27.06.2010 06:12 23,2 C 13,5 C 0,7 UV-I 0,0 C 50 % 80 % 0 % 1021,3 hPa 0,0 l/m 0,0 km/h (0 Bft) 0 min 0,0 km/h (0 Bft)
27.06.2010 06:14 23,2 C 13,4 C 0,7 UV-I 0,0 C 50 % 80 % 0 % 1021,3 hPa 0,0 l/m 0,0 km/h (0 Bft) 0 min 0,0 km/h (0 Bft)
27.06.2010 06:16 23,2 C 13,5 C 0,7 UV-I 0,0 C 50 % 80 % 0 % 1021,3 hPa 0,0 l/m 0,0 km/h (0 Bft) 0 min 0,0 km/h (0 Bft)
27.06.2010 06:20 23,2 C 13,5 C 0,7 UV-I 0,0 C 50 % 80 % 0 % 1021,3 hPa 0,0 l/m 0,0 km/h (0 Bft) 0 min 0,0 km/h (0 Bft)
27.06.2010 06:22 23,2 C 13,4 C 0,8 UV-I 0,0 C 50 % 80 % 0 % 1021,3 hPa 0,0 l/m 0,0 km/h (0 Bft) 0 min 0,0 km/h (0 Bft)
27.06.2010 06:24 23,2 C 13,5 C 0,8 UV-I 0,0 C 50 % 81 % 0 % 1021,3 hPa 0,0 l/m 0,0 km/h (0 Bft) 0 min 0,0 km/h (0 Bft)
27.06.2010 06:26 23,2 C 13,3 C 0,8 UV-I 0,0 C 50 % 80 % 0 % 1021,3 hPa 0,0 l/m 0,0 km/h (0 Bft) 0 min 0,0 km/h (0 Bft)
27.06.2010 06:28 23,2 C 13,4 C 0,9 UV-I 0,0 C 50 % 81 % 0 % 1021,3 hPa 0,0 l/m 0,0 km/h (0 Bft) 0 min 0,0 km/h (0 Bft)
27.06.2010 06:30 23,2 C 13,3 C 0,9 UV-I 0,0 C 50 % 81 % 0 % 1021,3 hPa 0,0 l/m 0,0 km/h (0 Bft) 0 min 0,0 km/h (0 Bft)
27.06.2010 06:32 23,2 C 13,3 C 1,0 UV-I 0,0 C 50 % 81 % 0 % 1021,2 hPa 0,0 l/m 0,0 km/h (0 Bft) 0 min 0,0 km/h (0 Bft)
27.06.2010 06:34 23,2 C 13,3 C 1,0 UV-I 0,0 C 50 % 81 % 0 % 1021,2 hPa 0,0 l/m 0,0 km/h (0 Bft) 0 min 0,0 km/h (0 Bft)
27.06.2010 06:36 23,2 C 13,4 C 1,0 UV-I 0,0 C 50 % 81 % 0 % 1021,2 hPa 0,0 l/m 0,0 km/h (0 Bft) 0 min 0,0 km/h (0 Bft)
27.06.2010 06:38 23,2 C 13,3 C 1,1 UV-I 0,0 C 50 % 81 % 0 % 1021,2 hPa 0,0 l/m 0,0 km/h (0 Bft) 0 min 0,0 km/h (0 Bft)
27.06.2010 06:40 23,2 C 13,4 C 1,1 UV-I 0,0 C 50 % 81 % 0 % 1021,2 hPa 0,0 l/m 0,0 km/h (0 Bft) 0 min 0,0 km/h (0 Bft)
27.06.2010 06:42 23,2 C 13,3 C 1,2 UV-I 0,0 C 50 % 81 % 0 % 1021,2 hPa 0,0 l/m 0,0 km/h (0 Bft) 0 min 0,0 km/h (0 Bft)
27.06.2010 06:44 23,2 C 13,4 C 1,2 UV-I 0,0 C 50 % 81 % 0 % 1021,2 hPa 0,0 l/m 0,0 km/h (0 Bft) 0 min 0,0 km/h (0 Bft)
27.06.2010 06:46 23,2 C 13,4 C 1,2 UV-I 0,0 C 50 % 81 % 0 % 1021,2 hPa 0,0 l/m 0,0 km/h (0 Bft) 0 min 0,0 km/h (0 Bft)
27.06.2010 06:48 23,2 C 13,5 C 1,3 UV-I 0,0 C 51 % 81 % 0 % 1021,2 hPa 0,0 l/m 0,0 km/h (0 Bft) 0 min 0,0 km/h (0 Bft)
27.06.2010 06:50 23,2 C 13,5 C 1,3 UV-I 0,0 C 51 % 81 % 0 % 1021,2 hPa 0,0 l/m 0,0 km/h (0 Bft) 0 min 0,0 km/h (0 Bft)
27.06.2010 06:52 23,2 C 13,4 C 1,4 UV-I 0,0 C 50 % 81 % 0 % 1021,2 hPa 0,0 l/m 0,0 km/h (0 Bft) 0 min 0,0 km/h (0 Bft)
27.06.2010 06:54 23,2 C 13,5 C 1,4 UV-I 0,0 C 51 % 81 % 0 % 1021,2 hPa 0,0 l/m 0,0 km/h (0 Bft) 0 min 0,0 km/h (0 Bft)
27.06.2010 06:56 23,2 C 13,4 C 1,4 UV-I 0,0 C 51 % 82 % 0 % 1021,2 hPa 0,0 l/m 0,0 km/h (0 Bft) 0 min 0,0 km/h (0 Bft)
27.06.2010 06:58 23,2 C 13,5 C 1,5 UV-I 0,0 C 51 % 82 % 0 % 1021,2 hPa 0,0 l/m 0,0 km/h (0 Bft) 0 min 0,0 km/h (0 Bft)
27.06.2010 07:00 23,2 C 13,6 C 1,5 UV-I 0,0 C 51 % 82 % 0 % 1021,2 hPa 0,0 l/m 0,0 km/h (0 Bft) 0 min 0,0 km/h (0 Bft)
27.06.2010 07:02 23,2 C 13,6 C 1,6 UV-I 0,0 C 51 % 82 % 0 % 1021,2 hPa 0,0 l/m 0,0 km/h (0 Bft) 0 min 0,0 km/h (0 Bft)
27.06.2010 07:04 23,1 C 13,6 C 1,6 UV-I 0,0 C 51 % 82 % 0 % 1021,2 hPa 0,0 l/m 0,0 km/h (0 Bft) 0 min 0,0 km/h (0 Bft)
27.06.2010 07:08 23,2 C 13,6 C 1,7 UV-I 0,0 C 51 % 82 % 0 % 1021,2 hPa 0,0 l/m 0,0 km/h (0 Bft) 0 min 0,0 km/h (0 Bft)
27.06.2010 07:10 23,2 C 13,7 C 1,7 UV-I 0,0 C 51 % 82 % 0 % 1021,2 hPa 0,0 l/m 0,0 km/h (0 Bft) 0 min 0,0 km/h (0 Bft)
27.06.2010 07:12 23,1 C 13,9 C 1,8 UV-I 0,0 C 51 % 82 % 0 % 1021,2 hPa 0,0 l/m 0,0 km/h (0 Bft) 0 min 0,0 km/h (0 Bft)
27.06.2010 07:14 23,1 C 14,1 C 1,8 UV-I 0,0 C 51 % 82 % 0 % 1021,2 hPa 0,0 l/m 0,0 km/h (0 Bft) 0 min 0,0 km/h (0 Bft)
27.06.2010 07:16 23,1 C 14,2 C 1,8 UV-I 0,0 C 51 % 81 % 0 % 1021,2 hPa 0,0 l/m 0,0 km/h (0 Bft) 0 min 0,0 km/h (0 Bft)
27.06.2010 07:18 23,1 C 14,4 C 1,9 UV-I 0,0 C 51 % 80 % 0 % 1021,2 hPa 0,0 l/m 0,0 km/h (0 Bft) 0 min 0,0 km/h (0 Bft)
27.06.2010 07:20 23,1 C 14,6 C 1,9 UV-I 0,0 C 51 % 80 % 0 % 1021,2 hPa 0,0 l/m 0,0 km/h (0 Bft) 0 min 0,0 km/h (0 Bft)
27.06.2010 07:22 23,1 C 14,8 C 2,1 UV-I 0,0 C 51 % 80 % 0 % 1021,2 hPa 0,0 l/m 0,0 km/h (0 Bft) 0 min 0,0 km/h (0 Bft)
27.06.2010 07:24 23,1 C 14,8 C 2,1 UV-I 0,0 C 51 % 80 % 0 % 1021,2 hPa 0,0 l/m 0,0 km/h (0 Bft) 0 min 0,0 km/h (0 Bft)
27.06.2010 07:26 23,1 C 14,9 C 2,1 UV-I 0,0 C 51 % 79 % 0 % 1021,2 hPa 0,0 l/m 0,0 km/h (0 Bft) 0 min 0,0 km/h (0 Bft)
27.06.2010 07:28 23,1 C 15,1 C 2,3 UV-I 0,0 C 51 % 79 % 0 % 1021,2 hPa 0,0 l/m 0,0 km/h (0 Bft) 0 min 0,0 km/h (0 Bft)
27.06.2010 07:30 23,1 C 15,3 C 2,3 UV-I 0,0 C 51 % 78 % 0 % 1021,2 hPa 0,0 l/m 0,0 km/h (0 Bft) 0 min 0,0 km/h (0 Bft)
27.06.2010 07:32 23,1 C 15,2 C 2,4 UV-I 0,1 C 51 % 78 % 3 % 1021,4 hPa 0,0 l/m 0,0 km/h (0 Bft) 0 min 0,0 km/h (0 Bft)
27.06.2010 07:34 23,1 C 15,5 C 2,4 UV-I 0,0 C 51 % 78 % 0 % 1021,4 hPa 0,0 l/m 0,0 km/h (0 Bft) 0 min 0,0 km/h (0 Bft)
27.06.2010 07:36 23,1 C 15,6 C 2,4 UV-I 0,0 C 51 % 78 % 0 % 1021,4 hPa 0,0 l/m 0,0 km/h (0 Bft) 0 min 0,0 km/h (0 Bft)
27.06.2010 07:38 23,1 C 15,7 C 2,6 UV-I 0,0 C 51 % 77 % 0 % 1021,4 hPa 0,0 l/m 0,4 km/h (0 Bft) 0 min 3,9 km/h (1 Bft)
27.06.2010 07:40 23,1 C 15,9 C 2,6 UV-I 0,0 C 51 % 76 % 0 % 1021,4 hPa 0,0 l/m 0,4 km/h (0 Bft) 0 min 0,0 km/h (0 Bft)
27.06.2010 07:42 23,1 C 15,9 C 2,7 UV-I 0,0 C 51 % 76 % 0 % 1021,4 hPa 0,0 l/m 0,4 km/h (0 Bft) 0 min 0,0 km/h (0 Bft)
27.06.2010 07:46 23,1 C 16,1 C 2,7 UV-I 0,0 C 51 % 75 % 0 % 1021,4 hPa 0,0 l/m 0,4 km/h (0 Bft) 0 min 0,0 km/h (0 Bft)
27.06.2010 07:48 23,2 C 16,2 C 2,8 UV-I 0,0 C 51 % 75 % 0 % 1021,4 hPa 0,0 l/m 0,4 km/h (0 Bft) 0 min 0,0 km/h (0 Bft)
27.06.2010 07:50 23,2 C 16,2 C 2,8 UV-I 0,0 C 51 % 75 % 0 % 1021,4 hPa 0,0 l/m 0,4 km/h (0 Bft) 0 min 0,0 km/h (0 Bft)
27.06.2010 07:52 23,1 C 16,3 C 2,9 UV-I 0,1 C 51 % 75 % 3 % 1021,5 hPa 0,0 l/m 0,0 km/h (0 Bft) 0 min 0,0 km/h (0 Bft)
27.06.2010 07:54 23,2 C 16,4 C 2,9 UV-I 0,1 C 51 % 75 % 3 % 1021,5 hPa 0,0 l/m 0,0 km/h (0 Bft) 0 min 0,0 km/h (0 Bft)
27.06.2010 07:56 23,2 C 16,5 C 2,9 UV-I 0,1 C 51 % 75 % 3 % 1021,5 hPa 0,0 l/m 0,0 km/h (0 Bft) 0 min 0,0 km/h (0 Bft)
27.06.2010 07:58 23,2 C 16,7 C 3,1 UV-I 0,0 C 51 % 75 % 0 % 1021,5 hPa 0,0 l/m 0,0 km/h (0 Bft) 0 min 0,0 km/h (0 Bft)
27.06.2010 08:00 23,2 C 16,7 C 3,1 UV-I 0,2 C 51 % 74 % 6 % 1021,5 hPa 0,0 l/m 0,0 km/h (0 Bft) 0 min 0,0 km/h (0 Bft)
27.06.2010 08:02 23,2 C 16,8 C 3,2 UV-I 0,2 C 51 % 73 % 6 % 1021,5 hPa 0,0 l/m 0,0 km/h (0 Bft) 0 min 0,0 km/h (0 Bft)
27.06.2010 08:04 23,2 C 16,8 C 3,2 UV-I 0,3 C 51 % 73 % 9 % 1021,5 hPa 0,0 l/m 0,0 km/h (0 Bft) 0 min 0,0 km/h (0 Bft)
27.06.2010 08:06 23,2 C 16,9 C 3,2 UV-I 0,3 C 51 % 72 % 9 % 1021,5 hPa 0,0 l/m 0,0 km/h (0 Bft) 0 min 0,0 km/h (0 Bft)
27.06.2010 08:08 23,2 C 17,1 C 3,3 UV-I 0,5 C 51 % 72 % 14 % 1021,5 hPa 0,0 l/m 0,0 km/h (0 Bft) 0 min 0,0 km/h (0 Bft)
27.06.2010 08:10 23,2 C 17,2 C 3,3 UV-I 0,4 C 51 % 72 % 11 % 1021,5 hPa 0,0 l/m 0,0 km/h (0 Bft) 0 min 4,2 km/h (1 Bft)
27.06.2010 08:12 23,2 C 17,2 C 3,4 UV-I 2,4 C 51 % 72 % 69 % 1021,4 hPa 0,0 l/m 0,8 km/h (0 Bft) 0 min 0,0 km/h (0 Bft)
27.06.2010 08:14 23,2 C 17,3 C 3,4 UV-I 3,4 C 51 % 72 % 97 % 1021,4 hPa 0,0 l/m 1,2 km/h (1 Bft) 2 min 3,2 km/h (1 Bft)
27.06.2010 08:16 23,2 C 17,5 C 3,4 UV-I 3,8 C 51 % 71 % 100 % 1021,4 hPa 0,0 l/m 1,6 km/h (1 Bft) 2 min 5,8 km/h (2 Bft)
27.06.2010 08:18 23,2 C 17,5 C 3,5 UV-I 4,4 C 51 % 71 % 100 % 1021,4 hPa 0,0 l/m 2,0 km/h (1 Bft) 2 min 4,5 km/h (1 Bft)
27.06.2010 08:20 23,2 C 17,6 C 3,5 UV-I 4,9 C 51 % 71 % 100 % 1021,4 hPa 0,0 l/m 2,4 km/h (1 Bft) 2 min 5,8 km/h (2 Bft)
27.06.2010 08:22 23,2 C 17,6 C 3,6 UV-I 5,2 C 51 % 71 % 100 % 1021,4 hPa 0,0 l/m 2,4 km/h (1 Bft) 2 min 5,1 km/h (1 Bft)
27.06.2010 08:24 23,2 C 17,8 C 3,6 UV-I 5,4 C 51 % 71 % 100 % 1021,4 hPa 0,0 l/m 2,4 km/h (1 Bft) 2 min 0,0 km/h (0 Bft)
27.06.2010 08:26 23,2 C 17,9 C 3,6 UV-I 5,8 C 51 % 70 % 100 % 1021,4 hPa 0,0 l/m 2,4 km/h (1 Bft) 2 min 6,1 km/h (2 Bft)
27.06.2010 08:28 23,2 C 17,9 C 3,7 UV-I 6,0 C 51 % 70 % 100 % 1021,4 hPa 0,0 l/m 2,4 km/h (1 Bft) 2 min 3,9 km/h (1 Bft)
27.06.2010 08:30 23,2 C 18,0 C 3,7 UV-I 5,9 C 51 % 71 % 100 % 1021,4 hPa 0,0 l/m 2,4 km/h (1 Bft) 2 min 6,8 km/h (2 Bft)
27.06.2010 08:32 23,2 C 18,1 C 4,5 UV-I 6,5 C 51 % 70 % 100 % 1021,6 hPa 0,0 l/m 2,8 km/h (1 Bft) 2 min 7,4 km/h (2 Bft)
27.06.2010 08:34 23,3 C 18,2 C 4,5 UV-I 6,4 C 51 % 69 % 100 % 1021,6 hPa 0,0 l/m 3,2 km/h (1 Bft) 2 min 6,8 km/h (2 Bft)
27.06.2010 08:36 23,2 C 18,4 C 4,5 UV-I 6,3 C 51 % 69 % 100 % 1021,6 hPa 0,0 l/m 4,4 km/h (1 Bft) 2 min 4,8 km/h (1 Bft)
27.06.2010 08:38 23,2 C 18,6 C 5,0 UV-I 6,1 C 51 % 69 % 100 % 1021,6 hPa 0,0 l/m 4,0 km/h (1 Bft) 2 min 0,0 km/h (0 Bft)
27.06.2010 08:40 23,3 C 18,7 C 5,0 UV-I 6,1 C 51 % 69 % 100 % 1021,6 hPa 0,0 l/m 4,4 km/h (1 Bft) 2 min 11,6 km/h (2 Bft)
27.06.2010 08:42 23,2 C 18,9 C 5,4 UV-I 6,2 C 51 % 68 % 100 % 1021,6 hPa 0,0 l/m 4,4 km/h (1 Bft) 2 min 3,9 km/h (1 Bft)
27.06.2010 08:46 23,3 C 19,2 C 5,4 UV-I 6,3 C 51 % 67 % 100 % 1021,6 hPa 0,0 l/m 3,6 km/h (1 Bft) 2 min 3,5 km/h (1 Bft)
27.06.2010 08:48 23,2 C 19,3 C 5,8 UV-I 6,2 C 51 % 66 % 100 % 1021,6 hPa 0,0 l/m 3,6 km/h (1 Bft) 2 min 4,8 km/h (1 Bft)
27.06.2010 08:50 23,2 C 19,3 C 5,8 UV-I 6,2 C 51 % 66 % 100 % 1021,6 hPa 0,0 l/m 3,6 km/h (1 Bft) 2 min 4,8 km/h (1 Bft)
27.06.2010 08:52 23,2 C 19,6 C 6,3 UV-I 6,2 C 51 % 65 % 100 % 1021,6 hPa 0,0 l/m 3,2 km/h (1 Bft) 2 min 4,5 km/h (1 Bft)
27.06.2010 08:54 23,2 C 19,7 C 6,3 UV-I 6,3 C 51 % 65 % 100 % 1021,6 hPa 0,0 l/m 3,6 km/h (1 Bft) 2 min 4,5 km/h (1 Bft)
27.06.2010 08:56 23,2 C 19,8 C 6,3 UV-I 6,2 C 51 % 64 % 100 % 1021,6 hPa 0,0 l/m 3,6 km/h (1 Bft) 2 min 4,2 km/h (1 Bft)
27.06.2010 08:58 23,2 C 19,9 C 7,0 UV-I 6,2 C 51 % 64 % 100 % 1021,6 hPa 0,0 l/m 3,2 km/h (1 Bft) 2 min 3,2 km/h (1 Bft)
27.06.2010 09:02 23,4 C 20,1 C 7,9 UV-I 6,2 C 51 % 64 % 100 % 1021,6 hPa 0,0 l/m 3,6 km/h (1 Bft) 2 min 7,4 km/h (2 Bft)
27.06.2010 09:08 23,4 C 20,4 C 7,9 UV-I 6,1 C 51 % 64 % 100 % 1021,6 hPa 0,0 l/m 4,4 km/h (1 Bft) 2 min 8,7 km/h (2 Bft)
27.06.2010 09:10 23,4 C 20,4 C 7,9 UV-I 6,1 C 51 % 64 % 100 % 1021,6 hPa 0,0 l/m 4,4 km/h (1 Bft) 2 min 8,7 km/h (2 Bft)
27.06.2010 09:12 23,4 C 20,8 C 9,7 UV-I 5,7 C 51 % 63 % 100 % 1021,9 hPa 0,0 l/m 5,2 km/h (1 Bft) 2 min 6,4 km/h (2 Bft)
27.06.2010 09:14 23,4 C 20,8 C 9,7 UV-I 5,9 C 51 % 63 % 100 % 1021,9 hPa 0,0 l/m 4,4 km/h (1 Bft) 2 min 0,0 km/h (0 Bft)
27.06.2010 09:16 23,4 C 20,9 C 9,7 UV-I 6,0 C 51 % 62 % 100 % 1021,9 hPa 0,0 l/m 4,0 km/h (1 Bft) 2 min 0,0 km/h (0 Bft)
27.06.2010 09:20 23,4 C 21,2 C 10,5 UV-I 6,0 C 51 % 62 % 100 % 1021,9 hPa 0,0 l/m 2,8 km/h (1 Bft) 2 min 0,0 km/h (0 Bft)
27.06.2010 09:22 23,4 C 21,3 C 11,4 UV-I 6,1 C 51 % 61 % 100 % 1021,9 hPa 0,0 l/m 2,4 km/h (1 Bft) 2 min 9,0 km/h (2 Bft)
27.06.2010 09:24 23,4 C 21,4 C 11,4 UV-I 6,2 C 51 % 61 % 100 % 1021,9 hPa 0,0 l/m 2,4 km/h (1 Bft) 2 min 0,0 km/h (0 Bft)
27.06.2010 09:26 23,4 C 21,4 C 11,4 UV-I 6,3 C 51 % 61 % 100 % 1021,9 hPa 0,0 l/m 2,4 km/h (1 Bft) 2 min 0,0 km/h (0 Bft)
27.06.2010 09:28 23,4 C 21,7 C 12,3 UV-I 6,1 C 51 % 61 % 100 % 1021,9 hPa 0,0 l/m 2,4 km/h (1 Bft) 2 min 0,0 km/h (0 Bft)
27.06.2010 09:30 23,4 C 21,7 C 12,3 UV-I 6,1 C 51 % 61 % 100 % 1021,9 hPa 0,0 l/m 2,4 km/h (1 Bft) 2 min 0,0 km/h (0 Bft)
27.06.2010 09:32 23,4 C 21,9 C 12,9 UV-I 6,0 C 51 % 59 % 100 % 1021,8 hPa 0,0 l/m 3,6 km/h (1 Bft) 2 min 0,0 km/h (0 Bft)
27.06.2010 09:34 23,4 C 21,8 C 12,9 UV-I 6,1 C 51 % 59 % 100 % 1021,8 hPa 0,0 l/m 3,2 km/h (1 Bft) 2 min 5,8 km/h (2 Bft)
27.06.2010 09:36 23,4 C 21,9 C 12,9 UV-I 6,1 C 51 % 59 % 100 % 1021,8 hPa 0,0 l/m 4,0 km/h (1 Bft) 2 min 8,0 km/h (2 Bft)
27.06.2010 09:38 23,4 C 22,0 C 13,5 UV-I 6,0 C 51 % 59 % 100 % 1021,8 hPa 0,0 l/m 3,6 km/h (1 Bft) 2 min 0,0 km/h (0 Bft)
27.06.2010 09:40 23,4 C 22,0 C 13,5 UV-I 6,3 C 51 % 59 % 100 % 1021,8 hPa 0,0 l/m 3,2 km/h (1 Bft) 2 min 4,8 km/h (1 Bft)
27.06.2010 09:42 23,4 C 22,1 C 14,0 UV-I 6,3 C 51 % 59 % 100 % 1021,8 hPa 0,0 l/m 2,4 km/h (1 Bft) 2 min 0,0 km/h (0 Bft)
27.06.2010 09:44 23,4 C 22,3 C 14,0 UV-I 6,3 C 51 % 59 % 100 % 1021,8 hPa 0,0 l/m 3,2 km/h (1 Bft) 2 min 3,5 km/h (1 Bft)
27.06.2010 09:46 23,4 C 22,3 C 14,0 UV-I 6,3 C 51 % 59 % 100 % 1021,8 hPa 0,0 l/m 2,4 km/h (1 Bft) 2 min 0,0 km/h (0 Bft)
27.06.2010 09:52 23,5 C 22,7 C 14,9 UV-I 6,4 C 51 % 58 % 100 % 1021,8 hPa 0,0 l/m 2,0 km/h (1 Bft) 2 min 4,2 km/h (1 Bft)
27.06.2010 09:54 23,5 C 22,7 C 14,9 UV-I 6,8 C 51 % 58 % 100 % 1021,8 hPa 0,0 l/m 1,6 km/h (1 Bft) 2 min 4,5 km/h (1 Bft)
27.06.2010 09:56 23,5 C 22,9 C 14,9 UV-I 6,7 C 51 % 58 % 100 % 1021,8 hPa 0,0 l/m 1,6 km/h (1 Bft) 2 min 0,0 km/h (0 Bft)
27.06.2010 09:58 23,5 C 22,9 C 15,4 UV-I 6,8 C 51 % 58 % 100 % 1021,8 hPa 0,0 l/m 1,6 km/h (1 Bft) 2 min 0,0 km/h (0 Bft)
27.06.2010 10:00 23,5 C 23,1 C 15,4 UV-I 6,8 C 51 % 58 % 100 % 1021,8 hPa 0,0 l/m 1,2 km/h (1 Bft) 2 min 0,0 km/h (0 Bft)
27.06.2010 10:02 23,5 C 23,2 C 15,6 UV-I 6,8 C 51 % 57 % 100 % 1021,8 hPa 0,0 l/m 1,2 km/h (1 Bft) 2 min 5,5 km/h (1 Bft)
27.06.2010 10:06 23,5 C 23,3 C 15,6 UV-I 7,0 C 51 % 56 % 100 % 1021,8 hPa 0,0 l/m 1,2 km/h (1 Bft) 2 min 7,7 km/h (2 Bft)
27.06.2010 10:08 23,5 C 23,3 C 15,9 UV-I 6,8 C 51 % 55 % 100 % 1021,8 hPa 0,0 l/m 2,0 km/h (1 Bft) 2 min 4,5 km/h (1 Bft)
27.06.2010 10:10 23,5 C 23,3 C 15,9 UV-I 6,8 C 51 % 55 % 100 % 1021,8 hPa 0,0 l/m 2,0 km/h (1 Bft) 2 min 4,5 km/h (1 Bft)
27.06.2010 10:12 23,5 C 23,3 C 15,9 UV-I 6,7 C 51 % 55 % 100 % 1022,1 hPa 0,0 l/m 2,8 km/h (1 Bft) 2 min 3,9 km/h (1 Bft)
27.06.2010 10:14 23,6 C 23,3 C 15,9 UV-I 6,8 C 51 % 55 % 100 % 1022,1 hPa 0,0 l/m 3,2 km/h (1 Bft) 2 min 5,5 km/h (1 Bft)
27.06.2010 10:16 23,6 C 23,2 C 15,9 UV-I 6,9 C 51 % 55 % 100 % 1022,1 hPa 0,0 l/m 3,2 km/h (1 Bft) 2 min 0,0 km/h (0 Bft)
27.06.2010 10:18 23,6 C 23,3 C 15,8 UV-I 6,8 C 51 % 54 % 100 % 1022,1 hPa 0,0 l/m 2,4 km/h (1 Bft) 2 min 0,0 km/h (0 Bft)
27.06.2010 10:20 23,6 C 23,4 C 15,8 UV-I 6,9 C 51 % 54 % 100 % 1022,1 hPa 0,0 l/m 2,4 km/h (1 Bft) 2 min 4,5 km/h (1 Bft)
27.06.2010 10:22 23,6 C 23,5 C 15,7 UV-I 7,0 C 51 % 53 % 100 % 1022,1 hPa 0,0 l/m 2,4 km/h (1 Bft) 2 min 4,2 km/h (1 Bft)
27.06.2010 10:24 23,6 C 23,4 C 15,7 UV-I 7,2 C 51 % 53 % 100 % 1022,1 hPa 0,0 l/m 2,4 km/h (1 Bft) 2 min 5,5 km/h (1 Bft)
27.06.2010 10:26 23,6 C 23,5 C 15,7 UV-I 7,1 C 51 % 54 % 100 % 1022,1 hPa 0,0 l/m 2,4 km/h (1 Bft) 2 min 4,2 km/h (1 Bft)
27.06.2010 10:28 23,6 C 23,7 C 15,6 UV-I 6,8 C 51 % 53 % 100 % 1022,1 hPa 0,0 l/m 2,8 km/h (1 Bft) 2 min 0,0 km/h (0 Bft)
27.06.2010 10:30 23,6 C 23,7 C 15,6 UV-I 6,8 C 51 % 53 % 100 % 1022,1 hPa 0,0 l/m 2,8 km/h (1 Bft) 2 min 0,0 km/h (0 Bft)
27.06.2010 10:34 23,6 C 23,9 C 15,6 UV-I 6,6 C 51 % 52 % 100 % 1021,9 hPa 0,0 l/m 3,6 km/h (1 Bft) 2 min 4,8 km/h (1 Bft)
27.06.2010 10:36 23,6 C 24,0 C 15,6 UV-I 6,6 C 51 % 52 % 100 % 1021,9 hPa 0,0 l/m 4,0 km/h (1 Bft) 2 min 3,5 km/h (1 Bft)
27.06.2010 10:38 23,6 C 24,0 C 15,4 UV-I 6,6 C 51 % 53 % 100 % 1021,9 hPa 0,0 l/m 4,0 km/h (1 Bft) 2 min 3,9 km/h (1 Bft)
27.06.2010 10:40 23,6 C 24,1 C 15,4 UV-I 6,4 C 51 % 52 % 100 % 1021,9 hPa 0,0 l/m 4,0 km/h (1 Bft) 2 min 4,8 km/h (1 Bft)
27.06.2010 10:42 23,6 C 24,2 C 15,2 UV-I 6,5 C 51 % 53 % 100 % 1021,9 hPa 0,0 l/m 3,6 km/h (1 Bft) 2 min 3,2 km/h (1 Bft)
27.06.2010 10:44 23,6 C 24,3 C 15,2 UV-I 6,4 C 51 % 52 % 100 % 1021,9 hPa 0,0 l/m 4,0 km/h (1 Bft) 2 min 5,5 km/h (1 Bft)
27.06.2010 10:46 23,6 C 24,4 C 15,2 UV-I 6,1 C 51 % 51 % 100 % 1021,9 hPa 0,0 l/m 4,4 km/h (1 Bft) 2 min 5,5 km/h (1 Bft)
27.06.2010 10:48 23,6 C 24,4 C 15,2 UV-I 6,1 C 51 % 52 % 100 % 1021,9 hPa 0,0 l/m 3,6 km/h (1 Bft) 2 min 4,8 km/h (1 Bft)
27.06.2010 10:50 23,6 C 24,4 C 15,2 UV-I 6,1 C 51 % 52 % 100 % 1021,9 hPa 0,0 l/m 3,6 km/h (1 Bft) 2 min 4,8 km/h (1 Bft)
27.06.2010 10:52 23,6 C 24,7 C 14,9 UV-I 5,8 C 51 % 52 % 100 % 1022,0 hPa 0,0 l/m 4,0 km/h (1 Bft) 2 min 3,2 km/h (1 Bft)
27.06.2010 10:56 23,6 C 24,9 C 14,9 UV-I 6,0 C 51 % 52 % 100 % 1022,0 hPa 0,0 l/m 3,2 km/h (1 Bft) 2 min 0,0 km/h (0 Bft)
27.06.2010 10:58 23,6 C 24,9 C 14,6 UV-I 6,4 C 51 % 51 % 100 % 1022,0 hPa 0,0 l/m 2,4 km/h (1 Bft) 2 min 3,2 km/h (1 Bft)
27.06.2010 11:00 23,7 C 25,0 C 14,6 UV-I 6,5 C 51 % 51 % 100 % 1022,0 hPa 0,0 l/m 2,4 km/h (1 Bft) 2 min 3,9 km/h (1 Bft)
27.06.2010 11:02 23,7 C 25,1 C 14,4 UV-I 6,3 C 51 % 50 % 100 % 1022,0 hPa 0,0 l/m 2,0 km/h (1 Bft) 2 min 3,5 km/h (1 Bft)
27.06.2010 11:04 23,7 C 25,1 C 14,4 UV-I 6,3 C 51 % 50 % 100 % 1022,0 hPa 0,0 l/m 2,4 km/h (1 Bft) 2 min 4,8 km/h (1 Bft)
27.06.2010 11:08 23,7 C 25,1 C 14,6 UV-I 6,6 C 51 % 51 % 100 % 1022,0 hPa 0,0 l/m 2,8 km/h (1 Bft) 2 min 0,0 km/h (0 Bft)
27.06.2010 11:10 23,7 C 25,1 C 14,6 UV-I 6,6 C 51 % 51 % 100 % 1022,0 hPa 0,0 l/m 2,8 km/h (1 Bft) 2 min 0,0 km/h (0 Bft)
27.06.2010 11:12 23,7 C 25,0 C 14,7 UV-I 7,2 C 51 % 51 % 100 % 1021,8 hPa 0,0 l/m 2,0 km/h (1 Bft) 2 min 0,0 km/h (0 Bft)
27.06.2010 11:14 23,7 C 25,1 C 14,7 UV-I 7,2 C 51 % 49 % 100 % 1021,8 hPa 0,0 l/m 1,6 km/h (1 Bft) 2 min 5,8 km/h (2 Bft)
27.06.2010 11:16 23,7 C 25,2 C 14,7 UV-I 7,2 C 51 % 50 % 100 % 1021,8 hPa 0,0 l/m 1,6 km/h (1 Bft) 2 min 5,1 km/h (1 Bft)
27.06.2010 11:20 23,8 C 25,1 C 14,5 UV-I 7,1 C 51 % 50 % 100 % 1021,8 hPa 0,0 l/m 2,4 km/h (1 Bft) 2 min 4,5 km/h (1 Bft)
27.06.2010 11:22 23,8 C 25,1 C 14,2 UV-I 7,1 C 51 % 49 % 100 % 1021,8 hPa 0,0 l/m 2,8 km/h (1 Bft) 2 min 4,5 km/h (1 Bft)
27.06.2010 11:24 23,8 C 25,2 C 14,2 UV-I 6,9 C 51 % 50 % 100 % 1021,8 hPa 0,0 l/m 2,8 km/h (1 Bft) 2 min 4,5 km/h (1 Bft)
27.06.2010 11:26 23,8 C 25,3 C 14,2 UV-I 7,0 C 51 % 50 % 100 % 1021,8 hPa 0,0 l/m 2,4 km/h (1 Bft) 2 min 0,0 km/h (0 Bft)
27.06.2010 11:30 23,8 C 25,5 C 13,8 UV-I 7,0 C 51 % 49 % 100 % 1021,8 hPa 0,0 l/m 2,4 km/h (1 Bft) 2 min 6,4 km/h (2 Bft)
27.06.2010 11:32 23,8 C 25,4 C 13,4 UV-I 6,9 C 51 % 49 % 100 % 1022,1 hPa 0,0 l/m 3,2 km/h (1 Bft) 2 min 4,2 km/h (1 Bft)
27.06.2010 11:34 23,8 C 25,5 C 13,4 UV-I 6,7 C 51 % 49 % 100 % 1022,1 hPa 0,0 l/m 3,2 km/h (1 Bft) 2 min 3,2 km/h (1 Bft)
27.06.2010 11:36 23,8 C 25,6 C 13,4 UV-I 6,6 C 51 % 49 % 100 % 1022,1 hPa 0,0 l/m 3,6 km/h (1 Bft) 2 min 0,0 km/h (0 Bft)
27.06.2010 11:38 23,8 C 25,6 C 12,7 UV-I 6,7 C 51 % 48 % 100 % 1022,1 hPa 0,0 l/m 4,4 km/h (1 Bft) 2 min 7,7 km/h (2 Bft)
27.06.2010 11:40 23,8 C 25,6 C 12,7 UV-I 6,5 C 51 % 48 % 100 % 1022,1 hPa 0,0 l/m 4,0 km/h (1 Bft) 2 min 3,9 km/h (1 Bft)
27.06.2010 11:42 23,8 C 25,7 C 12,2 UV-I 6,4 C 51 % 48 % 100 % 1022,1 hPa 0,0 l/m 4,0 km/h (1 Bft) 2 min 7,7 km/h (2 Bft)
27.06.2010 11:44 23,8 C 25,7 C 12,2 UV-I 6,5 C 51 % 48 % 100 % 1022,1 hPa 0,0 l/m 4,8 km/h (1 Bft) 2 min 9,0 km/h (2 Bft)
27.06.2010 11:46 23,8 C 25,7 C 12,2 UV-I 6,6 C 51 % 47 % 100 % 1022,1 hPa 0,0 l/m 5,6 km/h (1 Bft) 2 min 11,3 km/h (2 Bft)
27.06.2010 11:50 23,8 C 25,6 C 11,6 UV-I 6,4 C 51 % 47 % 100 % 1022,1 hPa 0,0 l/m 7,2 km/h (2 Bft) 2 min 3,5 km/h (1 Bft)
27.06.2010 11:54 23,9 C 25,9 C 11,2 UV-I 6,1 C 51 % 48 % 100 % 1022,2 hPa 0,0 l/m 7,2 km/h (2 Bft) 2 min 14,5 km/h (3 Bft)
27.06.2010 11:56 23,9 C 26,1 C 11,2 UV-I 5,9 C 51 % 49 % 100 % 1022,2 hPa 0,0 l/m 6,0 km/h (2 Bft) 2 min 0,0 km/h (0 Bft)
27.06.2010 11:58 23,9 C 26,2 C 10,8 UV-I 6,2 C 50 % 47 % 100 % 1022,2 hPa 0,0 l/m 4,8 km/h (1 Bft) 2 min 17,4 km/h (3 Bft)
27.06.2010 12:00 23,9 C 26,1 C 10,8 UV-I 6,4 C 51 % 46 % 100 % 1022,2 hPa 0,0 l/m 4,4 km/h (1 Bft) 2 min 17,4 km/h (3 Bft)
27.06.2010 12:02 23,9 C 25,9 C 10,5 UV-I 6,5 C 51 % 46 % 100 % 1022,2 hPa 0,0 l/m 5,2 km/h (1 Bft) 2 min 0,0 km/h (0 Bft)
27.06.2010 12:04 23,9 C 25,9 C 10,5 UV-I 6,4 C 51 % 47 % 100 % 1022,2 hPa 0,0 l/m 4,8 km/h (1 Bft) 2 min 0,0 km/h (0 Bft)
27.06.2010 12:06 23,9 C 25,9 C 10,5 UV-I 6,5 C 50 % 46 % 100 % 1022,2 hPa 0,0 l/m 6,8 km/h (2 Bft) 2 min 23,5 km/h (4 Bft)
27.06.2010 12:08 23,9 C 25,8 C 10,2 UV-I 6,3 C 50 % 47 % 100 % 1022,2 hPa 0,0 l/m 8,4 km/h (2 Bft) 2 min 10,0 km/h (2 Bft)
27.06.2010 12:10 23,9 C 25,8 C 10,2 UV-I 6,3 C 50 % 47 % 100 % 1022,2 hPa 0,0 l/m 8,4 km/h (2 Bft) 2 min 23,5 km/h (4 Bft)
27.06.2010 12:12 24,0 C 25,8 C 10,0 UV-I 6,0 C 50 % 46 % 100 % 1022,4 hPa 0,0 l/m 8,0 km/h (2 Bft) 2 min 6,4 km/h (2 Bft)
27.06.2010 12:14 24,0 C 25,8 C 10,0 UV-I 6,0 C 50 % 47 % 100 % 1022,4 hPa 0,0 l/m 8,0 km/h (2 Bft) 2 min 0,0 km/h (0 Bft)
27.06.2010 12:16 24,0 C 26,0 C 10,0 UV-I 5,8 C 50 % 47 % 100 % 1022,4 hPa 0,0 l/m 8,0 km/h (2 Bft) 2 min 9,7 km/h (2 Bft)
27.06.2010 12:20 24,0 C 26,1 C 9,9 UV-I 6,0 C 50 % 46 % 100 % 1022,4 hPa 0,0 l/m 6,0 km/h (2 Bft) 2 min 6,4 km/h (2 Bft)
27.06.2010 12:26 24,0 C 26,4 C 9,6 UV-I 5,8 C 50 % 45 % 100 % 1022,4 hPa 0,0 l/m 6,4 km/h (2 Bft) 2 min 8,0 km/h (2 Bft)
27.06.2010 12:30 24,0 C 26,4 C 9,6 UV-I 5,8 C 50 % 45 % 100 % 1022,4 hPa 0,0 l/m 6,4 km/h (2 Bft) 2 min 8,0 km/h (2 Bft)
27.06.2010 12:32 24,1 C 26,5 C 9,7 UV-I 5,8 C 50 % 46 % 100 % 1022,1 hPa 0,0 l/m 4,4 km/h (1 Bft) 2 min 4,8 km/h (1 Bft)
27.06.2010 12:34 24,0 C 26,6 C 9,7 UV-I 5,7 C 50 % 46 % 100 % 1022,1 hPa 0,0 l/m 4,4 km/h (1 Bft) 2 min 0,0 km/h (0 Bft)
27.06.2010 12:36 24,1 C 26,8 C 9,7 UV-I 5,7 C 50 % 46 % 100 % 1022,1 hPa 0,0 l/m 4,4 km/h (1 Bft) 2 min 3,5 km/h (1 Bft)
27.06.2010 12:38 24,1 C 27,0 C 9,7 UV-I 5,8 C 50 % 45 % 100 % 1022,1 hPa 0,0 l/m 4,0 km/h (1 Bft) 2 min 5,8 km/h (2 Bft)
27.06.2010 12:40 24,1 C 27,0 C 9,7 UV-I 5,8 C 50 % 43 % 100 % 1022,1 hPa 0,0 l/m 3,2 km/h (1 Bft) 2 min 3,5 km/h (1 Bft)
27.06.2010 12:42 24,1 C 27,1 C 9,5 UV-I 5,7 C 50 % 45 % 100 % 1022,1 hPa 0,0 l/m 3,2 km/h (1 Bft) 2 min 6,1 km/h (2 Bft)
27.06.2010 12:44 24,1 C 27,1 C 9,5 UV-I 5,7 C 50 % 43 % 100 % 1022,1 hPa 0,0 l/m 3,6 km/h (1 Bft) 2 min 7,4 km/h (2 Bft)
27.06.2010 12:46 24,2 C 27,0 C 9,5 UV-I 5,7 C 50 % 45 % 100 % 1022,1 hPa 0,0 l/m 3,6 km/h (1 Bft) 2 min 3,9 km/h (1 Bft)
27.06.2010 12:48 24,2 C 27,1 C 9,5 UV-I 5,8 C 50 % 43 % 100 % 1022,1 hPa 0,0 l/m 4,4 km/h (1 Bft) 2 min 6,4 km/h (2 Bft)
27.06.2010 12:50 24,2 C 27,1 C 9,5 UV-I 5,8 C 50 % 43 % 100 % 1022,1 hPa 0,0 l/m 4,4 km/h (1 Bft) 2 min 6,4 km/h (2 Bft)
27.06.2010 12:52 24,2 C 27,3 C 9,5 UV-I 5,9 C 50 % 45 % 100 % 1022,1 hPa 0,0 l/m 4,4 km/h (1 Bft) 2 min 10,0 km/h (2 Bft)
27.06.2010 12:54 24,2 C 27,2 C 9,5 UV-I 6,2 C 50 % 44 % 100 % 1022,1 hPa 0,0 l/m 4,0 km/h (1 Bft) 2 min 6,8 km/h (2 Bft)
27.06.2010 12:56 24,2 C 27,2 C 9,5 UV-I 6,2 C 50 % 44 % 100 % 1022,1 hPa 0,0 l/m 3,6 km/h (1 Bft) 2 min 4,5 km/h (1 Bft)
27.06.2010 12:58 24,2 C 27,5 C 9,6 UV-I 5,8 C 50 % 42 % 100 % 1022,1 hPa 0,0 l/m 3,6 km/h (1 Bft) 2 min 4,5 km/h (1 Bft)
27.06.2010 13:00 24,3 C 27,4 C 9,6 UV-I 5,9 C 50 % 42 % 100 % 1022,1 hPa 0,0 l/m 4,0 km/h (1 Bft) 2 min 7,4 km/h (2 Bft)
27.06.2010 13:02 24,3 C 27,4 C 9,6 UV-I 6,0 C 50 % 42 % 100 % 1022,1 hPa 0,0 l/m 5,2 km/h (1 Bft) 2 min 3,2 km/h (1 Bft)
27.06.2010 13:04 24,3 C 27,5 C 9,6 UV-I 5,8 C 50 % 41 % 100 % 1022,1 hPa 0,0 l/m 5,2 km/h (1 Bft) 2 min 5,5 km/h (1 Bft)
27.06.2010 13:06 24,3 C 27,7 C 9,6 UV-I 5,5 C 50 % 42 % 100 % 1022,1 hPa 0,0 l/m 5,2 km/h (1 Bft) 2 min 6,1 km/h (2 Bft)
27.06.2010 13:08 24,3 C 27,7 C 9,5 UV-I 5,5 C 50 % 40 % 100 % 1022,1 hPa 0,0 l/m 5,2 km/h (1 Bft) 2 min 4,2 km/h (1 Bft)
27.06.2010 13:10 24,3 C 27,7 C 9,5 UV-I 5,5 C 50 % 40 % 100 % 1022,1 hPa 0,0 l/m 5,2 km/h (1 Bft) 2 min 4,2 km/h (1 Bft)
27.06.2010 13:12 24,4 C 27,7 C 9,6 UV-I 5,5 C 50 % 41 % 100 % 1021,9 hPa 0,0 l/m 4,8 km/h (1 Bft) 2 min 7,4 km/h (2 Bft)
27.06.2010 13:14 24,4 C 27,8 C 9,6 UV-I 5,2 C 50 % 40 % 100 % 1021,9 hPa 0,0 l/m 4,8 km/h (1 Bft) 2 min 3,5 km/h (1 Bft)
27.06.2010 13:16 24,4 C 27,9 C 9,6 UV-I 5,2 C 50 % 41 % 100 % 1021,9 hPa 0,0 l/m 4,8 km/h (1 Bft) 2 min 5,1 km/h (1 Bft)
27.06.2010 13:18 24,4 C 27,9 C 9,7 UV-I 5,3 C 50 % 40 % 100 % 1021,9 hPa 0,0 l/m 4,4 km/h (1 Bft) 2 min 0,0 km/h (0 Bft)
27.06.2010 13:20 24,4 C 28,0 C 9,7 UV-I 5,3 C 50 % 39 % 100 % 1021,9 hPa 0,0 l/m 5,2 km/h (1 Bft) 2 min 9,3 km/h (2 Bft)
27.06.2010 13:26 24,4 C 27,9 C 9,8 UV-I 5,3 C 50 % 40 % 100 % 1021,9 hPa 0,0 l/m 4,8 km/h (1 Bft) 2 min 5,8 km/h (2 Bft)
27.06.2010 13:28 24,5 C 28,2 C 9,6 UV-I 5,0 C 50 % 40 % 100 % 1021,9 hPa 0,0 l/m 4,4 km/h (1 Bft) 2 min 3,5 km/h (1 Bft)
27.06.2010 13:32 24,5 C 28,3 C 9,7 UV-I 4,9 C 50 % 38 % 100 % 1021,9 hPa 0,0 l/m 3,6 km/h (1 Bft) 2 min 5,5 km/h (1 Bft)
27.06.2010 13:34 24,6 C 28,2 C 9,7 UV-I 5,1 C 50 % 38 % 100 % 1021,9 hPa 0,0 l/m 3,6 km/h (1 Bft) 2 min 4,2 km/h (1 Bft)
27.06.2010 13:36 24,6 C 28,3 C 9,7 UV-I 5,1 C 50 % 38 % 100 % 1021,9 hPa 0,0 l/m 4,0 km/h (1 Bft) 2 min 13,2 km/h (3 Bft)
27.06.2010 13:38 24,6 C 28,1 C 9,8 UV-I 5,4 C 50 % 38 % 100 % 1021,9 hPa 0,0 l/m 5,2 km/h (1 Bft) 2 min 8,4 km/h (2 Bft)
27.06.2010 13:40 24,6 C 28,1 C 9,8 UV-I 5,4 C 50 % 39 % 100 % 1021,9 hPa 0,0 l/m 5,6 km/h (1 Bft) 2 min 9,7 km/h (2 Bft)
27.06.2010 13:42 24,6 C 28,3 C 9,7 UV-I 5,2 C 50 % 38 % 100 % 1021,9 hPa 0,0 l/m 6,0 km/h (2 Bft) 2 min 4,5 km/h (1 Bft)
27.06.2010 13:44 24,6 C 28,2 C 9,7 UV-I 5,3 C 50 % 38 % 100 % 1021,9 hPa 0,0 l/m 6,4 km/h (2 Bft) 2 min 8,4 km/h (2 Bft)
27.06.2010 13:46 24,7 C 28,2 C 9,7 UV-I 5,3 C 50 % 38 % 100 % 1021,9 hPa 0,0 l/m 6,4 km/h (2 Bft) 2 min 0,0 km/h (0 Bft)
27.06.2010 13:48 24,7 C 28,4 C 9,5 UV-I 5,1 C 50 % 38 % 100 % 1021,9 hPa 0,0 l/m 4,8 km/h (1 Bft) 2 min 0,0 km/h (0 Bft)
27.06.2010 13:52 24,7 C 28,7 C 9,8 UV-I 5,1 C 49 % 39 % 100 % 1022,0 hPa 0,0 l/m 3,2 km/h (1 Bft) 2 min 0,0 km/h (0 Bft)
27.06.2010 13:56 24,8 C 29,0 C 9,8 UV-I 5,3 C 49 % 37 % 100 % 1022,0 hPa 0,0 l/m 2,0 km/h (1 Bft) 2 min 3,2 km/h (1 Bft)
27.06.2010 14:00 24,8 C 29,1 C 9,7 UV-I 5,2 C 49 % 35 % 100 % 1022,0 hPa 0,0 l/m 2,0 km/h (1 Bft) 2 min 4,5 km/h (1 Bft)
27.06.2010 14:02 24,8 C 29,0 C 9,4 UV-I 5,3 C 49 % 35 % 100 % 1022,0 hPa 0,0 l/m 2,4 km/h (1 Bft) 2 min 0,0 km/h (0 Bft)
27.06.2010 14:04 24,8 C 29,0 C 9,4 UV-I 5,3 C 49 % 35 % 100 % 1022,0 hPa 0,0 l/m 2,8 km/h (1 Bft) 2 min 4,8 km/h (1 Bft)
27.06.2010 14:06 24,9 C 29,1 C 9,4 UV-I 5,2 C 49 % 35 % 100 % 1022,0 hPa 0,0 l/m 3,2 km/h (1 Bft) 2 min 4,2 km/h (1 Bft)
27.06.2010 14:10 24,9 C 29,3 C 9,5 UV-I 5,0 C 49 % 35 % 100 % 1022,0 hPa 0,0 l/m 2,4 km/h (1 Bft) 2 min 6,1 km/h (2 Bft)
27.06.2010 14:12 25,0 C 29,0 C 9,7 UV-I 5,4 C 49 % 35 % 100 % 1021,7 hPa 0,0 l/m 4,0 km/h (1 Bft) 2 min 6,8 km/h (2 Bft)
27.06.2010 14:14 25,0 C 29,1 C 9,7 UV-I 5,2 C 49 % 34 % 100 % 1021,7 hPa 0,0 l/m 4,4 km/h (1 Bft) 2 min 4,2 km/h (1 Bft)
27.06.2010 14:16 25,0 C 29,2 C 9,7 UV-I 5,1 C 49 % 35 % 100 % 1021,7 hPa 0,0 l/m 4,8 km/h (1 Bft) 2 min 5,5 km/h (1 Bft)
27.06.2010 14:18 25,1 C 29,3 C 9,8 UV-I 4,8 C 49 % 34 % 100 % 1021,7 hPa 0,0 l/m 6,4 km/h (2 Bft) 2 min 8,7 km/h (2 Bft)
27.06.2010 14:20 25,2 C 29,3 C 9,8 UV-I 4,6 C 49 % 35 % 100 % 1021,7 hPa 0,0 l/m 5,6 km/h (1 Bft) 2 min 5,5 km/h (1 Bft)
27.06.2010 14:22 25,2 C 29,3 C 9,7 UV-I 4,6 C 48 % 35 % 100 % 1021,7 hPa 0,0 l/m 6,0 km/h (2 Bft) 2 min 5,5 km/h (1 Bft)
27.06.2010 14:24 25,2 C 29,3 C 9,7 UV-I 4,6 C 48 % 35 % 100 % 1021,7 hPa 0,0 l/m 6,0 km/h (2 Bft) 2 min 4,8 km/h (1 Bft)
27.06.2010 14:26 25,2 C 29,4 C 9,7 UV-I 4,5 C 48 % 36 % 100 % 1021,7 hPa 0,0 l/m 6,0 km/h (2 Bft) 2 min 6,4 km/h (2 Bft)
27.06.2010 14:28 25,2 C 29,5 C 9,8 UV-I 4,5 C 48 % 34 % 100 % 1021,7 hPa 0,0 l/m 5,2 km/h (1 Bft) 2 min 0,0 km/h (0 Bft)
27.06.2010 14:30 25,2 C 29,5 C 9,8 UV-I 4,5 C 48 % 34 % 100 % 1021,7 hPa 0,0 l/m 5,2 km/h (1 Bft) 2 min 0,0 km/h (0 Bft)
27.06.2010 14:34 25,5 C 29,4 C 9,8 UV-I 4,8 C 48 % 33 % 100 % 1022,0 hPa 0,0 l/m 4,4 km/h (1 Bft) 2 min 8,7 km/h (2 Bft)
27.06.2010 14:36 25,6 C 29,2 C 9,8 UV-I 5,1 C 48 % 33 % 100 % 1022,0 hPa 0,0 l/m 4,8 km/h (1 Bft) 2 min 9,3 km/h (2 Bft)
27.06.2010 14:38 25,7 C 29,1 C 9,8 UV-I 5,1 C 48 % 34 % 100 % 1022,0 hPa 0,0 l/m 4,8 km/h (1 Bft) 2 min 7,4 km/h (2 Bft)
27.06.2010 14:42 25,8 C 29,3 C 9,5 UV-I 4,8 C 47 % 36 % 100 % 1022,0 hPa 0,0 l/m 5,2 km/h (1 Bft) 2 min 3,5 km/h (1 Bft)
27.06.2010 14:44 25,9 C 29,4 C 9,5 UV-I 4,7 C 47 % 35 % 100 % 1022,0 hPa 0,0 l/m 5,6 km/h (1 Bft) 2 min 0,0 km/h (0 Bft)
27.06.2010 14:46 26,0 C 29,5 C 9,5 UV-I 4,8 C 47 % 36 % 100 % 1022,0 hPa 0,0 l/m 4,8 km/h (1 Bft) 2 min 6,8 km/h (2 Bft)
27.06.2010 14:48 26,0 C 29,6 C 9,7 UV-I 4,7 C 47 % 36 % 100 % 1022,0 hPa 0,0 l/m 4,4 km/h (1 Bft) 2 min 8,0 km/h (2 Bft)
27.06.2010 14:52 26,1 C 29,8 C 9,8 UV-I 4,5 C 46 % 34 % 100 % 1022,2 hPa 0,0 l/m 5,2 km/h (1 Bft) 2 min 9,3 km/h (2 Bft)
27.06.2010 14:56 26,3 C 29,9 C 9,8 UV-I 4,3 C 46 % 36 % 100 % 1022,2 hPa 0,0 l/m 6,0 km/h (2 Bft) 2 min 7,7 km/h (2 Bft)
27.06.2010 14:58 26,2 C 30,0 C 9,9 UV-I 4,2 C 46 % 36 % 100 % 1022,2 hPa 0,0 l/m 5,6 km/h (1 Bft) 2 min 4,8 km/h (1 Bft)
27.06.2010 15:00 26,4 C 30,1 C 9,9 UV-I 4,1 C 46 % 36 % 100 % 1022,2 hPa 0,0 l/m 5,6 km/h (1 Bft) 2 min 4,2 km/h (1 Bft)
27.06.2010 15:02 26,4 C 30,3 C 10,0 UV-I 4,1 C 46 % 35 % 100 % 1022,2 hPa 0,0 l/m 4,0 km/h (1 Bft) 2 min 3,9 km/h (1 Bft)
27.06.2010 15:04 26,5 C 30,3 C 10,0 UV-I 4,2 C 46 % 34 % 100 % 1022,2 hPa 0,0 l/m 3,2 km/h (1 Bft) 2 min 3,2 km/h (1 Bft)
27.06.2010 15:06 26,6 C 30,3 C 10,0 UV-I 4,4 C 45 % 33 % 100 % 1022,2 hPa 0,0 l/m 3,2 km/h (1 Bft) 2 min 7,4 km/h (2 Bft)
27.06.2010 15:10 26,6 C 30,0 C 10,2 UV-I 4,8 C 45 % 35 % 100 % 1022,2 hPa 0,0 l/m 3,2 km/h (1 Bft) 2 min 0,0 km/h (0 Bft)
27.06.2010 15:12 26,8 C 29,9 C 10,2 UV-I 5,1 C 45 % 36 % 100 % 1023,1 hPa 0,0 l/m 2,8 km/h (1 Bft) 2 min 0,0 km/h (0 Bft)
27.06.2010 15:14 26,8 C 30,0 C 10,2 UV-I 5,1 C 45 % 36 % 100 % 1023,1 hPa 0,0 l/m 2,8 km/h (1 Bft) 2 min 3,2 km/h (1 Bft)
27.06.2010 15:16 26,8 C 30,1 C 10,2 UV-I 5,1 C 45 % 35 % 100 % 1023,1 hPa 0,0 l/m 3,2 km/h (1 Bft) 2 min 5,5 km/h (1 Bft)
27.06.2010 15:20 27,0 C 30,2 C 10,1 UV-I 5,0 C 45 % 34 % 100 % 1023,1 hPa 0,0 l/m 2,8 km/h (1 Bft) 2 min 3,9 km/h (1 Bft)
27.06.2010 15:22 27,0 C 30,3 C 10,0 UV-I 4,9 C 44 % 34 % 100 % 1023,1 hPa 0,0 l/m 2,8 km/h (1 Bft) 2 min 3,5 km/h (1 Bft)
27.06.2010 15:24 27,1 C 30,2 C 10,0 UV-I 5,2 C 44 % 34 % 100 % 1023,1 hPa 0,0 l/m 2,8 km/h (1 Bft) 2 min 0,0 km/h (0 Bft)
27.06.2010 15:26 27,2 C 30,3 C 10,0 UV-I 5,1 C 44 % 34 % 100 % 1023,1 hPa 0,0 l/m 2,4 km/h (1 Bft) 2 min 0,0 km/h (0 Bft)
27.06.2010 15:28 27,2 C 30,3 C 9,9 UV-I 5,2 C 44 % 35 % 100 % 1023,1 hPa 0,0 l/m 1,6 km/h (1 Bft) 2 min 3,5 km/h (1 Bft)
27.06.2010 15:30 27,2 C 30,3 C 9,9 UV-I 5,2 C 44 % 35 % 100 % 1023,1 hPa 0,0 l/m 1,6 km/h (1 Bft) 2 min 3,5 km/h (1 Bft)
27.06.2010 15:32 27,4 C 30,3 C 9,7 UV-I 5,1 C 44 % 34 % 100 % 1023,2 hPa 0,0 l/m 2,0 km/h (1 Bft) 2 min 3,2 km/h (1 Bft)
27.06.2010 15:34 27,4 C 30,4 C 9,7 UV-I 5,0 C 44 % 34 % 100 % 1023,2 hPa 0,0 l/m 2,4 km/h (1 Bft) 2 min 3,9 km/h (1 Bft)
27.06.2010 15:36 27,4 C 30,4 C 9,7 UV-I 5,0 C 44 % 34 % 100 % 1023,2 hPa 0,0 l/m 2,8 km/h (1 Bft) 2 min 5,1 km/h (1 Bft)
27.06.2010 15:38 27,5 C 30,5 C 9,8 UV-I 4,9 C 44 % 34 % 100 % 1023,2 hPa 0,0 l/m 4,4 km/h (1 Bft) 2 min 14,8 km/h (3 Bft)
27.06.2010 15:42 27,6 C 30,6 C 10,3 UV-I 4,4 C 43 % 34 % 100 % 1023,2 hPa 0,0 l/m 5,2 km/h (1 Bft) 2 min 8,4 km/h (2 Bft)
27.06.2010 15:44 27,7 C 30,3 C 10,3 UV-I 4,7 C 43 % 33 % 100 % 1023,2 hPa 0,0 l/m 6,4 km/h (2 Bft) 2 min 3,2 km/h (1 Bft)
27.06.2010 15:46 27,7 C 30,1 C 10,3 UV-I 4,9 C 43 % 34 % 100 % 1023,2 hPa 0,0 l/m 7,2 km/h (2 Bft) 2 min 9,0 km/h (2 Bft)
27.06.2010 15:48 27,8 C 30,0 C 10,1 UV-I 4,9 C 43 % 34 % 100 % 1023,2 hPa 0,0 l/m 6,8 km/h (2 Bft) 2 min 3,2 km/h (1 Bft)
27.06.2010 15:53 27,9 C 30,1 C 10,1 UV-I 4,9 C 43 % 34 % 100 % 1024,2 hPa 0,0 l/m 4,4 km/h (1 Bft) 2 min 5,5 km/h (1 Bft)
27.06.2010 15:55 28,0 C 30,2 C 10,1 UV-I 4,6 C 43 % 34 % 100 % 1024,2 hPa 0,0 l/m 4,4 km/h (1 Bft) 2 min 6,1 km/h (2 Bft)
27.06.2010 15:56 28,0 C 30,2 C 10,1 UV-I 4,6 C 43 % 34 % 100 % 1024,2 hPa 0,0 l/m 4,4 km/h (1 Bft) 1 min 6,1 km/h (2 Bft)
27.06.2010 15:58 28,0 C 30,3 C 10,3 UV-I 4,6 C 42 % 34 % 100 % 1024,2 hPa 0,0 l/m 4,4 km/h (1 Bft) 2 min 7,1 km/h (2 Bft)
27.06.2010 16:00 28,1 C 30,2 C 10,3 UV-I 4,9 C 42 % 36 % 100 % 1024,2 hPa 0,0 l/m 4,4 km/h (1 Bft) 2 min 8,4 km/h (2 Bft)
27.06.2010 16:02 28,2 C 30,4 C 10,4 UV-I 4,7 C 42 % 35 % 100 % 1024,2 hPa 0,0 l/m 5,6 km/h (1 Bft) 2 min 9,7 km/h (2 Bft)
27.06.2010 16:04 28,2 C 30,5 C 10,4 UV-I 4,4 C 42 % 34 % 100 % 1024,2 hPa 0,0 l/m 6,8 km/h (2 Bft) 2 min 14,8 km/h (3 Bft)
27.06.2010 16:06 28,2 C 30,6 C 10,4 UV-I 4,0 C 42 % 34 % 100 % 1024,2 hPa 0,0 l/m 8,0 km/h (2 Bft) 2 min 5,8 km/h (2 Bft)
27.06.2010 16:08 28,3 C 30,5 C 10,5 UV-I 3,9 C 42 % 34 % 100 % 1024,2 hPa 0,0 l/m 8,0 km/h (2 Bft) 2 min 4,8 km/h (1 Bft)
27.06.2010 16:10 28,3 C 30,5 C 10,5 UV-I 3,9 C 42 % 34 % 100 % 1024,2 hPa 0,0 l/m 8,0 km/h (2 Bft) 2 min 4,8 km/h (1 Bft)
27.06.2010 16:12 28,4 C 30,6 C 10,5 UV-I 3,9 C 42 % 35 % 100 % 1024,3 hPa 0,0 l/m 6,8 km/h (2 Bft) 2 min 7,1 km/h (2 Bft)
27.06.2010 16:14 28,4 C 30,7 C 10,5 UV-I 4,0 C 42 % 35 % 100 % 1024,3 hPa 0,0 l/m 6,8 km/h (2 Bft) 2 min 10,9 km/h (2 Bft)
27.06.2010 16:16 28,4 C 30,7 C 10,5 UV-I 3,9 C 42 % 35 % 100 % 1024,3 hPa 0,0 l/m 6,0 km/h (2 Bft) 2 min 8,4 km/h (2 Bft)
27.06.2010 16:18 28,5 C 30,8 C 10,4 UV-I 3,8 C 42 % 34 % 100 % 1024,3 hPa 0,0 l/m 5,6 km/h (1 Bft) 2 min 5,5 km/h (1 Bft)
27.06.2010 16:20 28,5 C 30,8 C 10,4 UV-I 3,8 C 42 % 35 % 100 % 1024,3 hPa 0,0 l/m 5,6 km/h (1 Bft) 2 min 5,5 km/h (1 Bft)
27.06.2010 16:22 28,6 C 30,9 C 10,0 UV-I 3,7 C 41 % 34 % 100 % 1024,3 hPa 0,0 l/m 6,0 km/h (2 Bft) 2 min 6,1 km/h (2 Bft)
27.06.2010 16:24 28,6 C 30,9 C 10,0 UV-I 3,7 C 41 % 33 % 100 % 1024,3 hPa 0,0 l/m 6,4 km/h (2 Bft) 2 min 7,4 km/h (2 Bft)
27.06.2010 16:26 28,6 C 30,8 C 10,0 UV-I 3,8 C 41 % 34 % 100 % 1024,3 hPa 0,0 l/m 5,6 km/h (1 Bft) 2 min 4,2 km/h (1 Bft)
27.06.2010 16:28 28,6 C 30,9 C 10,3 UV-I 3,8 C 41 % 34 % 100 % 1024,3 hPa 0,0 l/m 4,4 km/h (1 Bft) 2 min 0,0 km/h (0 Bft)
27.06.2010 16:30 28,6 C 30,9 C 10,3 UV-I 3,8 C 41 % 34 % 100 % 1024,3 hPa 0,0 l/m 4,4 km/h (1 Bft) 2 min 0,0 km/h (0 Bft)
27.06.2010 16:32 28,7 C 30,8 C 9,8 UV-I 3,9 C 41 % 34 % 100 % 1023,6 hPa 0,0 l/m 4,8 km/h (1 Bft) 2 min 4,8 km/h (1 Bft)
27.06.2010 16:36 28,7 C 30,8 C 9,8 UV-I 3,9 C 41 % 34 % 100 % 1023,6 hPa 0,0 l/m 3,6 km/h (1 Bft) 2 min 3,5 km/h (1 Bft)
27.06.2010 16:38 28,7 C 30,8 C 10,3 UV-I 4,0 C 41 % 33 % 100 % 1023,6 hPa 0,0 l/m 3,2 km/h (1 Bft) 2 min 3,5 km/h (1 Bft)
27.06.2010 16:40 28,7 C 30,6 C 10,3 UV-I 4,4 C 41 % 33 % 100 % 1023,6 hPa 0,0 l/m 3,2 km/h (1 Bft) 2 min 4,2 km/h (1 Bft)
27.06.2010 16:42 28,8 C 30,5 C 10,9 UV-I 4,6 C 41 % 34 % 100 % 1023,6 hPa 0,0 l/m 2,8 km/h (1 Bft) 2 min 3,9 km/h (1 Bft)
27.06.2010 16:44 28,8 C 30,5 C 10,9 UV-I 4,7 C 41 % 35 % 100 % 1023,6 hPa 0,0 l/m 2,8 km/h (1 Bft) 2 min 3,9 km/h (1 Bft)
27.06.2010 16:46 28,8 C 30,7 C 10,9 UV-I 4,6 C 41 % 34 % 100 % 1023,6 hPa 0,0 l/m 2,0 km/h (1 Bft) 2 min 0,0 km/h (0 Bft)
27.06.2010 16:48 28,8 C 30,7 C 11,2 UV-I 4,7 C 41 % 34 % 100 % 1023,6 hPa 0,0 l/m 2,0 km/h (1 Bft) 2 min 3,9 km/h (1 Bft)
27.06.2010 16:50 28,8 C 30,7 C 11,2 UV-I 4,7 C 41 % 34 % 100 % 1023,6 hPa 0,0 l/m 2,0 km/h (1 Bft) 2 min 3,9 km/h (1 Bft)
27.06.2010 16:52 28,9 C 30,9 C 11,2 UV-I 4,8 C 41 % 34 % 100 % 1024,8 hPa 0,0 l/m 2,0 km/h (1 Bft) 2 min 0,0 km/h (0 Bft)
27.06.2010 16:54 28,9 C 30,8 C 11,2 UV-I 4,9 C 41 % 34 % 100 % 1024,8 hPa 0,0 l/m 2,4 km/h (1 Bft) 2 min 8,4 km/h (2 Bft)
27.06.2010 16:56 28,9 C 30,8 C 11,2 UV-I 4,8 C 41 % 34 % 100 % 1024,8 hPa 0,0 l/m 2,8 km/h (1 Bft) 2 min 0,0 km/h (0 Bft)
27.06.2010 16:58 28,9 C 30,9 C 11,5 UV-I 4,6 C 41 % 35 % 100 % 1024,8 hPa 0,0 l/m 3,2 km/h (1 Bft) 2 min 11,9 km/h (2 Bft)
27.06.2010 17:00 29,0 C 31,0 C 11,5 UV-I 4,5 C 40 % 33 % 100 % 1024,8 hPa 0,0 l/m 4,0 km/h (1 Bft) 2 min 4,8 km/h (1 Bft)
27.06.2010 17:02 29,0 C 30,9 C 11,3 UV-I 4,5 C 40 % 33 % 100 % 1024,8 hPa 0,0 l/m 3,6 km/h (1 Bft) 2 min 0,0 km/h (0 Bft)
27.06.2010 17:04 29,0 C 30,8 C 11,3 UV-I 4,6 C 40 % 34 % 100 % 1024,8 hPa 0,0 l/m 4,4 km/h (1 Bft) 2 min 9,3 km/h (2 Bft)
27.06.2010 17:06 29,0 C 30,9 C 11,3 UV-I 4,3 C 41 % 34 % 100 % 1024,8 hPa 0,0 l/m 3,6 km/h (1 Bft) 2 min 7,4 km/h (2 Bft)
27.06.2010 17:08 29,0 C 30,8 C 11,2 UV-I 4,3 C 41 % 34 % 100 % 1024,8 hPa 0,0 l/m 4,4 km/h (1 Bft) 2 min 5,5 km/h (1 Bft)
27.06.2010 17:10 29,0 C 30,8 C 11,2 UV-I 4,3 C 41 % 34 % 100 % 1024,8 hPa 0,0 l/m 4,4 km/h (1 Bft) 2 min 5,5 km/h (1 Bft)
27.06.2010 17:12 29,0 C 30,9 C 11,0 UV-I 4,2 C 41 % 34 % 100 % 1023,9 hPa 0,0 l/m 4,0 km/h (1 Bft) 2 min 8,7 km/h (2 Bft)
27.06.2010 17:14 29,0 C 31,0 C 11,0 UV-I 4,1 C 41 % 34 % 100 % 1023,9 hPa 0,0 l/m 4,8 km/h (1 Bft) 2 min 6,8 km/h (2 Bft)
27.06.2010 17:16 29,0 C 31,1 C 11,0 UV-I 4,0 C 41 % 35 % 100 % 1023,9 hPa 0,0 l/m 4,4 km/h (1 Bft) 2 min 0,0 km/h (0 Bft)
27.06.2010 17:18 29,0 C 31,0 C 11,2 UV-I 4,1 C 41 % 35 % 100 % 1023,9 hPa 0,0 l/m 4,0 km/h (1 Bft) 2 min 8,7 km/h (2 Bft)
27.06.2010 17:20 29,0 C 31,0 C 11,2 UV-I 4,2 C 41 % 35 % 100 % 1023,9 hPa 0,0 l/m 4,4 km/h (1 Bft) 2 min 7,4 km/h (2 Bft)
27.06.2010 17:22 29,0 C 31,1 C 11,3 UV-I 4,0 C 41 % 33 % 100 % 1023,9 hPa 0,0 l/m 4,8 km/h (1 Bft) 2 min 4,8 km/h (1 Bft)
27.06.2010 17:24 29,1 C 31,0 C 11,3 UV-I 4,1 C 41 % 34 % 100 % 1023,9 hPa 0,0 l/m 4,8 km/h (1 Bft) 2 min 10,3 km/h (2 Bft)
27.06.2010 17:26 29,1 C 30,9 C 11,3 UV-I 4,1 C 41 % 35 % 100 % 1023,9 hPa 0,0 l/m 4,0 km/h (1 Bft) 2 min 4,2 km/h (1 Bft)
27.06.2010 17:28 29,1 C 31,1 C 11,2 UV-I 4,0 C 40 % 35 % 100 % 1023,9 hPa 0,0 l/m 4,4 km/h (1 Bft) 2 min 4,2 km/h (1 Bft)
27.06.2010 17:30 29,1 C 31,1 C 11,2 UV-I 4,0 C 40 % 35 % 100 % 1023,9 hPa 0,0 l/m 4,4 km/h (1 Bft) 2 min 4,2 km/h (1 Bft)
27.06.2010 17:32 29,1 C 31,1 C 10,6 UV-I 4,0 C 40 % 34 % 100 % 1022,9 hPa 0,0 l/m 5,2 km/h (1 Bft) 2 min 7,4 km/h (2 Bft)
27.06.2010 17:34 29,1 C 31,1 C 10,6 UV-I 3,9 C 40 % 34 % 100 % 1022,9 hPa 0,0 l/m 5,2 km/h (1 Bft) 2 min 11,3 km/h (2 Bft)
27.06.2010 17:36 29,1 C 31,0 C 10,6 UV-I 3,8 C 40 % 34 % 100 % 1022,9 hPa 0,0 l/m 6,4 km/h (2 Bft) 2 min 5,1 km/h (1 Bft)
27.06.2010 17:38 29,1 C 31,1 C 11,1 UV-I 3,6 C 40 % 34 % 100 % 1022,9 hPa 0,0 l/m 6,4 km/h (2 Bft) 2 min 6,1 km/h (2 Bft)
27.06.2010 17:40 29,2 C 31,1 C 11,1 UV-I 3,5 C 40 % 34 % 100 % 1022,9 hPa 0,0 l/m 6,4 km/h (2 Bft) 2 min 0,0 km/h (0 Bft)
27.06.2010 17:42 29,2 C 30,9 C 10,9 UV-I 3,8 C 40 % 34 % 100 % 1022,9 hPa 0,0 l/m 6,0 km/h (2 Bft) 2 min 4,8 km/h (1 Bft)
27.06.2010 17:44 29,2 C 30,9 C 10,9 UV-I 3,8 C 40 % 34 % 100 % 1022,9 hPa 0,0 l/m 5,6 km/h (1 Bft) 2 min 0,0 km/h (0 Bft)
27.06.2010 17:46 29,2 C 30,7 C 10,9 UV-I 4,1 C 40 % 35 % 100 % 1022,9 hPa 0,0 l/m 4,0 km/h (1 Bft) 2 min 0,0 km/h (0 Bft)
27.06.2010 17:48 29,2 C 30,5 C 10,7 UV-I 4,3 C 40 % 35 % 100 % 1022,9 hPa 0,0 l/m 3,2 km/h (1 Bft) 2 min 3,2 km/h (1 Bft)
27.06.2010 17:50 29,2 C 30,5 C 10,7 UV-I 4,3 C 40 % 35 % 100 % 1022,9 hPa 0,0 l/m 3,2 km/h (1 Bft) 2 min 3,2 km/h (1 Bft)
27.06.2010 17:52 29,2 C 30,5 C 10,4 UV-I 4,3 C 40 % 35 % 100 % 1023,0 hPa 0,0 l/m 3,2 km/h (1 Bft) 2 min 0,0 km/h (0 Bft)
27.06.2010 17:54 29,2 C 30,4 C 10,4 UV-I 4,5 C 40 % 35 % 100 % 1023,0 hPa 0,0 l/m 3,6 km/h (1 Bft) 2 min 11,3 km/h (2 Bft)
27.06.2010 17:56 29,2 C 30,5 C 10,4 UV-I 4,3 C 40 % 34 % 100 % 1023,0 hPa 0,0 l/m 4,8 km/h (1 Bft) 2 min 6,1 km/h (2 Bft)
27.06.2010 17:58 29,2 C 30,3 C 9,0 UV-I 4,4 C 40 % 34 % 100 % 1023,0 hPa 0,0 l/m 4,8 km/h (1 Bft) 2 min 0,0 km/h (0 Bft)
27.06.2010 18:00 29,2 C 30,3 C 9,0 UV-I 4,4 C 40 % 36 % 100 % 1023,0 hPa 0,0 l/m 4,0 km/h (1 Bft) 2 min 3,2 km/h (1 Bft)
27.06.2010 18:02 29,2 C 30,3 C 7,0 UV-I 4,5 C 40 % 35 % 100 % 1023,0 hPa 0,0 l/m 3,6 km/h (1 Bft) 2 min 8,0 km/h (2 Bft)
27.06.2010 18:04 29,1 C 30,1 C 7,0 UV-I 4,6 C 40 % 36 % 100 % 1023,0 hPa 0,0 l/m 4,4 km/h (1 Bft) 2 min 5,8 km/h (2 Bft)
27.06.2010 18:06 29,1 C 30,1 C 7,0 UV-I 4,6 C 41 % 35 % 100 % 1023,0 hPa 0,0 l/m 3,2 km/h (1 Bft) 2 min 0,0 km/h (0 Bft)
27.06.2010 18:08 29,1 C 30,1 C 5,6 UV-I 4,5 C 41 % 36 % 100 % 1023,0 hPa 0,0 l/m 2,8 km/h (1 Bft) 2 min 4,2 km/h (1 Bft)
27.06.2010 18:10 29,1 C 30,1 C 5,6 UV-I 4,5 C 41 % 36 % 100 % 1023,0 hPa 0,0 l/m 2,8 km/h (1 Bft) 2 min 4,2 km/h (1 Bft)
27.06.2010 18:12 29,1 C 30,1 C 5,8 UV-I 4,3 C 41 % 36 % 100 % 1022,9 hPa 0,0 l/m 3,6 km/h (1 Bft) 2 min 0,0 km/h (0 Bft)
27.06.2010 18:14 29,1 C 30,1 C 5,8 UV-I 4,3 C 41 % 36 % 100 % 1022,9 hPa 0,0 l/m 3,6 km/h (1 Bft) 2 min 4,2 km/h (1 Bft)
27.06.2010 18:16 29,1 C 30,0 C 5,8 UV-I 4,4 C 41 % 36 % 100 % 1022,9 hPa 0,0 l/m 3,6 km/h (1 Bft) 2 min 5,8 km/h (2 Bft)
27.06.2010 18:18 29,0 C 30,0 C 5,1 UV-I 4,2 C 41 % 36 % 100 % 1022,9 hPa 0,0 l/m 4,0 km/h (1 Bft) 2 min 3,5 km/h (1 Bft)
27.06.2010 18:20 29,0 C 29,9 C 5,1 UV-I 4,2 C 41 % 36 % 100 % 1022,9 hPa 0,0 l/m 3,2 km/h (1 Bft) 2 min 0,0 km/h (0 Bft)
27.06.2010 18:22 29,0 C 29,9 C 4,8 UV-I 3,8 C 40 % 37 % 100 % 1022,9 hPa 0,0 l/m 3,2 km/h (1 Bft) 2 min 4,5 km/h (1 Bft)
27.06.2010 18:24 28,9 C 29,9 C 4,8 UV-I 3,6 C 40 % 37 % 100 % 1022,9 hPa 0,0 l/m 3,2 km/h (1 Bft) 2 min 0,0 km/h (0 Bft)
27.06.2010 18:26 28,9 C 29,8 C 4,8 UV-I 3,8 C 40 % 37 % 100 % 1022,9 hPa 0,0 l/m 3,6 km/h (1 Bft) 2 min 6,1 km/h (2 Bft)
27.06.2010 18:28 28,8 C 29,8 C 4,7 UV-I 3,8 C 40 % 37 % 100 % 1022,9 hPa 0,0 l/m 4,0 km/h (1 Bft) 2 min 5,1 km/h (1 Bft)
27.06.2010 18:30 28,8 C 29,8 C 4,7 UV-I 3,8 C 40 % 37 % 100 % 1022,9 hPa 0,0 l/m 4,0 km/h (1 Bft) 2 min 5,1 km/h (1 Bft)
27.06.2010 18:32 28,8 C 29,6 C 4,5 UV-I 3,7 C 41 % 36 % 100 % 1022,3 hPa 0,0 l/m 4,0 km/h (1 Bft) 2 min 4,8 km/h (1 Bft)
27.06.2010 18:34 28,7 C 29,5 C 4,5 UV-I 3,5 C 41 % 36 % 100 % 1022,3 hPa 0,0 l/m 4,4 km/h (1 Bft) 2 min 6,8 km/h (2 Bft)
27.06.2010 18:36 28,7 C 29,5 C 4,5 UV-I 3,1 C 41 % 36 % 89 % 1022,3 hPa 0,0 l/m 3,6 km/h (1 Bft) 2 min 0,0 km/h (0 Bft)
27.06.2010 18:38 28,7 C 29,3 C 4,4 UV-I 2,9 C 41 % 36 % 83 % 1022,3 hPa 0,0 l/m 4,0 km/h (1 Bft) 2 min 4,8 km/h (1 Bft)
27.06.2010 18:40 28,6 C 29,2 C 4,4 UV-I 2,7 C 41 % 37 % 77 % 1022,3 hPa 0,0 l/m 3,2 km/h (1 Bft) 0 min 5,1 km/h (1 Bft)
27.06.2010 18:42 28,6 C 29,1 C 4,3 UV-I 2,3 C 41 % 37 % 66 % 1022,3 hPa 0,0 l/m 3,2 km/h (1 Bft) 0 min 3,5 km/h (1 Bft)
27.06.2010 18:44 28,6 C 29,2 C 4,3 UV-I 2,0 C 41 % 37 % 57 % 1022,3 hPa 0,0 l/m 3,2 km/h (1 Bft) 0 min 3,2 km/h (1 Bft)
27.06.2010 18:46 28,5 C 29,1 C 4,3 UV-I 1,7 C 41 % 37 % 49 % 1022,3 hPa 0,0 l/m 2,8 km/h (1 Bft) 0 min 0,0 km/h (0 Bft)
27.06.2010 18:48 28,5 C 29,1 C 4,1 UV-I 1,5 C 41 % 37 % 43 % 1022,3 hPa 0,0 l/m 2,4 km/h (1 Bft) 0 min 0,0 km/h (0 Bft)
27.06.2010 18:50 28,5 C 29,1 C 4,1 UV-I 1,5 C 41 % 37 % 43 % 1022,3 hPa 0,0 l/m 2,4 km/h (1 Bft) 0 min 0,0 km/h (0 Bft)
27.06.2010 18:52 28,4 C 29,0 C 4,0 UV-I 1,4 C 42 % 37 % 40 % 1021,4 hPa 0,0 l/m 1,2 km/h (1 Bft) 0 min 0,0 km/h (0 Bft)
27.06.2010 18:54 28,4 C 29,1 C 4,0 UV-I 1,2 C 42 % 37 % 34 % 1021,4 hPa 0,0 l/m 1,2 km/h (1 Bft) 0 min 0,0 km/h (0 Bft)
27.06.2010 18:56 28,3 C 29,1 C 4,0 UV-I 1,3 C 42 % 38 % 37 % 1021,4 hPa 0,0 l/m 0,4 km/h (0 Bft) 0 min 0,0 km/h (0 Bft)
27.06.2010 18:58 28,3 C 29,0 C 3,9 UV-I 1,5 C 42 % 37 % 43 % 1021,4 hPa 0,0 l/m 0,8 km/h (0 Bft) 0 min 0,0 km/h (0 Bft)
27.06.2010 19:00 28,2 C 28,9 C 3,9 UV-I 1,5 C 42 % 37 % 43 % 1021,4 hPa 0,0 l/m 1,2 km/h (1 Bft) 0 min 0,0 km/h (0 Bft)
27.06.2010 19:02 28,2 C 28,9 C 3,6 UV-I 1,3 C 42 % 37 % 37 % 1021,4 hPa 0,0 l/m 0,8 km/h (0 Bft) 0 min 0,0 km/h (0 Bft)
27.06.2010 19:04 28,2 C 28,9 C 3,6 UV-I 1,1 C 42 % 38 % 31 % 1021,4 hPa 0,0 l/m 0,8 km/h (0 Bft) 0 min 0,0 km/h (0 Bft)
27.06.2010 19:06 28,1 C 28,8 C 3,6 UV-I 1,0 C 42 % 38 % 29 % 1021,4 hPa 0,0 l/m 0,8 km/h (0 Bft) 0 min 0,0 km/h (0 Bft)
27.06.2010 19:08 28,0 C 28,8 C 3,6 UV-I 0,9 C 42 % 38 % 26 % 1021,4 hPa 0,0 l/m 0,4 km/h (0 Bft) 0 min 0,0 km/h (0 Bft)
27.06.2010 19:10 28,0 C 28,8 C 3,6 UV-I 0,9 C 42 % 38 % 26 % 1021,4 hPa 0,0 l/m 0,4 km/h (0 Bft) 0 min 0,0 km/h (0 Bft)
27.06.2010 19:12 28,0 C 28,8 C 3,4 UV-I 0,7 C 42 % 38 % 20 % 1021,0 hPa 0,0 l/m 0,4 km/h (0 Bft) 0 min 4,8 km/h (1 Bft)
27.06.2010 19:14 28,0 C 28,9 C 3,4 UV-I 0,5 C 42 % 37 % 14 % 1021,0 hPa 0,0 l/m 0,4 km/h (0 Bft) 0 min 0,0 km/h (0 Bft)
27.06.2010 19:16 28,0 C 28,8 C 3,4 UV-I 0,4 C 42 % 37 % 11 % 1021,0 hPa 0,0 l/m 0,4 km/h (0 Bft) 0 min 0,0 km/h (0 Bft)
27.06.2010 19:18 27,9 C 28,7 C 3,3 UV-I 0,4 C 43 % 37 % 11 % 1021,0 hPa 0,0 l/m 0,4 km/h (0 Bft) 0 min 3,9 km/h (1 Bft)
27.06.2010 19:20 27,9 C 28,7 C 3,3 UV-I 0,3 C 43 % 38 % 9 % 1021,0 hPa 0,0 l/m 0,4 km/h (0 Bft) 0 min 0,0 km/h (0 Bft)
27.06.2010 19:22 27,9 C 28,7 C 3,3 UV-I 0,2 C 43 % 38 % 6 % 1021,0 hPa 0,0 l/m 0,4 km/h (0 Bft) 0 min 0,0 km/h (0 Bft)
27.06.2010 19:24 27,8 C 28,7 C 3,3 UV-I 0,1 C 43 % 38 % 3 % 1021,0 hPa 0,0 l/m 0,0 km/h (0 Bft) 0 min 0,0 km/h (0 Bft)
27.06.2010 19:26 27,8 C 28,7 C 3,3 UV-I 0,0 C 43 % 38 % 0 % 1021,0 hPa 0,0 l/m 0,0 km/h (0 Bft) 0 min 0,0 km/h (0 Bft)
27.06.2010 19:28 27,8 C 28,7 C 3,1 UV-I 0,0 C 43 % 38 % 0 % 1021,0 hPa 0,0 l/m 0,4 km/h (0 Bft) 0 min 4,2 km/h (1 Bft)
27.06.2010 19:30 27,8 C 28,7 C 3,1 UV-I 0,0 C 43 % 38 % 0 % 1021,0 hPa 0,0 l/m 0,4 km/h (0 Bft) 0 min 4,2 km/h (1 Bft)
27.06.2010 19:32 27,7 C 28,7 C 3,0 UV-I 0,0 C 43 % 38 % 0 % 1021,2 hPa 0,0 l/m 0,8 km/h (0 Bft) 0 min 3,5 km/h (1 Bft)
27.06.2010 19:34 27,7 C 28,6 C 3,0 UV-I 0,0 C 43 % 38 % 0 % 1021,2 hPa 0,0 l/m 0,8 km/h (0 Bft) 0 min 0,0 km/h (0 Bft)
27.06.2010 19:38 27,6 C 28,5 C 2,9 UV-I 0,0 C 43 % 38 % 0 % 1021,2 hPa 0,0 l/m 1,6 km/h (1 Bft) 0 min 4,2 km/h (1 Bft)
27.06.2010 19:42 27,6 C 28,5 C 2,8 UV-I 0,0 C 43 % 38 % 0 % 1021,2 hPa 0,0 l/m 1,2 km/h (1 Bft) 0 min 0,0 km/h (0 Bft)
27.06.2010 19:44 27,6 C 28,4 C 2,8 UV-I 0,0 C 43 % 38 % 0 % 1021,2 hPa 0,0 l/m 0,8 km/h (0 Bft) 0 min 0,0 km/h (0 Bft)
27.06.2010 19:46 27,5 C 28,4 C 2,8 UV-I 0,0 C 43 % 38 % 0 % 1021,2 hPa 0,0 l/m 0,8 km/h (0 Bft) 0 min 0,0 km/h (0 Bft)
27.06.2010 19:48 27,5 C 28,5 C 2,6 UV-I 0,0 C 43 % 38 % 0 % 1021,2 hPa 0,0 l/m 0,4 km/h (0 Bft) 0 min 0,0 km/h (0 Bft)
27.06.2010 19:50 27,5 C 28,5 C 2,6 UV-I 0,0 C 43 % 38 % 0 % 1021,2 hPa 0,0 l/m 0,4 km/h (0 Bft) 0 min 0,0 km/h (0 Bft)
27.06.2010 19:52 27,5 C 28,4 C 2,5 UV-I 0,0 C 44 % 39 % 0 % 1021,0 hPa 0,0 l/m 1,2 km/h (1 Bft) 0 min 4,8 km/h (1 Bft)
27.06.2010 19:54 27,4 C 28,5 C 2,5 UV-I 0,0 C 44 % 39 % 0 % 1021,0 hPa 0,0 l/m 1,2 km/h (1 Bft) 0 min 0,0 km/h (0 Bft)
27.06.2010 19:56 27,4 C 28,4 C 2,5 UV-I 0,0 C 44 % 39 % 0 % 1021,0 hPa 0,0 l/m 1,2 km/h (1 Bft) 0 min 0,0 km/h (0 Bft)
27.06.2010 19:58 27,4 C 28,4 C 2,3 UV-I 0,0 C 44 % 39 % 0 % 1021,0 hPa 0,0 l/m 1,2 km/h (1 Bft) 0 min 0,0 km/h (0 Bft)
27.06.2010 20:00 27,4 C 28,4 C 2,3 UV-I 0,0 C 44 % 39 % 0 % 1021,0 hPa 0,0 l/m 1,2 km/h (1 Bft) 0 min 0,0 km/h (0 Bft)
27.06.2010 20:02 27,4 C 28,4 C 2,3 UV-I 0,0 C 44 % 39 % 0 % 1021,0 hPa 0,0 l/m 0,8 km/h (0 Bft) 0 min 0,0 km/h (0 Bft)
27.06.2010 20:04 27,4 C 28,4 C 2,3 UV-I 0,0 C 44 % 39 % 0 % 1021,0 hPa 0,0 l/m 0,0 km/h (0 Bft) 0 min 0,0 km/h (0 Bft)
27.06.2010 20:06 27,2 C 28,3 C 2,3 UV-I 0,0 C 44 % 39 % 0 % 1021,0 hPa 0,0 l/m 0,0 km/h (0 Bft) 0 min 0,0 km/h (0 Bft)
27.06.2010 20:08 27,2 C 28,3 C 2,1 UV-I 0,0 C 44 % 39 % 0 % 1021,0 hPa 0,0 l/m 0,4 km/h (0 Bft) 0 min 0,0 km/h (0 Bft)
27.06.2010 20:10 27,2 C 28,3 C 2,1 UV-I 0,0 C 44 % 39 % 0 % 1021,0 hPa 0,0 l/m 0,4 km/h (0 Bft) 0 min 0,0 km/h (0 Bft)
27.06.2010 20:12 27,3 C 28,2 C 2,0 UV-I 0,0 C 44 % 40 % 0 % 1020,8 hPa 0,0 l/m 0,8 km/h (0 Bft) 0 min 0,0 km/h (0 Bft)
27.06.2010 20:14 27,3 C 28,3 C 2,0 UV-I 0,0 C 44 % 40 % 0 % 1020,8 hPa 0,0 l/m 0,8 km/h (0 Bft) 0 min 0,0 km/h (0 Bft)
27.06.2010 20:16 27,2 C 28,1 C 2,0 UV-I 0,0 C 44 % 40 % 0 % 1020,8 hPa 0,0 l/m 1,2 km/h (1 Bft) 0 min 5,8 km/h (2 Bft)
27.06.2010 20:18 27,2 C 28,1 C 1,9 UV-I 0,0 C 44 % 40 % 0 % 1020,8 hPa 0,0 l/m 0,8 km/h (0 Bft) 0 min 0,0 km/h (0 Bft)
27.06.2010 20:20 27,2 C 28,0 C 1,9 UV-I 0,0 C 44 % 40 % 0 % 1020,8 hPa 0,0 l/m 0,8 km/h (0 Bft) 0 min 4,2 km/h (1 Bft)
27.06.2010 20:22 27,2 C 28,1 C 1,8 UV-I 0,0 C 44 % 39 % 0 % 1020,8 hPa 0,0 l/m 0,8 km/h (0 Bft) 0 min 0,0 km/h (0 Bft)
27.06.2010 20:24 27,2 C 28,0 C 1,8 UV-I 0,0 C 44 % 40 % 0 % 1020,8 hPa 0,0 l/m 0,8 km/h (0 Bft) 0 min 0,0 km/h (0 Bft)
27.06.2010 20:26 27,2 C 28,1 C 1,8 UV-I 0,0 C 44 % 40 % 0 % 1020,8 hPa 0,0 l/m 0,8 km/h (0 Bft) 0 min 0,0 km/h (0 Bft)
27.06.2010 20:28 27,2 C 27,9 C 1,6 UV-I 0,0 C 44 % 40 % 0 % 1020,8 hPa 0,0 l/m 0,4 km/h (0 Bft) 0 min 0,0 km/h (0 Bft)
27.06.2010 20:30 27,2 C 27,9 C 1,6 UV-I 0,0 C 44 % 40 % 0 % 1020,8 hPa 0,0 l/m 0,4 km/h (0 Bft) 0 min 0,0 km/h (0 Bft)
27.06.2010 20:32 27,2 C 27,8 C 1,5 UV-I 0,0 C 45 % 41 % 0 % 1020,9 hPa 0,0 l/m 0,0 km/h (0 Bft) 0 min 0,0 km/h (0 Bft)
27.06.2010 20:34 27,1 C 27,9 C 1,5 UV-I 0,0 C 45 % 40 % 0 % 1020,9 hPa 0,0 l/m 0,0 km/h (0 Bft) 0 min 0,0 km/h (0 Bft)
27.06.2010 20:36 27,1 C 27,8 C 1,5 UV-I 0,0 C 45 % 40 % 0 % 1020,9 hPa 0,0 l/m 0,0 km/h (0 Bft) 0 min 0,0 km/h (0 Bft)
27.06.2010 20:38 27,1 C 27,8 C 1,4 UV-I 0,0 C 45 % 41 % 0 % 1020,9 hPa 0,0 l/m 0,0 km/h (0 Bft) 0 min 0,0 km/h (0 Bft)
27.06.2010 20:40 27,1 C 27,7 C 1,4 UV-I 0,0 C 45 % 41 % 0 % 1020,9 hPa 0,0 l/m 0,0 km/h (0 Bft) 0 min 0,0 km/h (0 Bft)
27.06.2010 20:42 27,1 C 27,7 C 1,3 UV-I 0,0 C 45 % 41 % 0 % 1020,9 hPa 0,0 l/m 0,0 km/h (0 Bft) 0 min 0,0 km/h (0 Bft)
27.06.2010 20:46 27,0 C 27,6 C 1,3 UV-I 0,0 C 45 % 42 % 0 % 1020,9 hPa 0,0 l/m 0,0 km/h (0 Bft) 0 min 0,0 km/h (0 Bft)
27.06.2010 20:48 27,0 C 27,5 C 1,2 UV-I 0,0 C 45 % 42 % 0 % 1020,9 hPa 0,0 l/m 0,0 km/h (0 Bft) 0 min 0,0 km/h (0 Bft)
27.06.2010 20:50 27,0 C 27,5 C 1,2 UV-I 0,0 C 45 % 42 % 0 % 1020,9 hPa 0,0 l/m 0,0 km/h (0 Bft) 0 min 0,0 km/h (0 Bft)
27.06.2010 20:52 27,0 C 27,5 C 1,1 UV-I 0,0 C 45 % 42 % 0 % 1020,8 hPa 0,0 l/m 0,0 km/h (0 Bft) 0 min 0,0 km/h (0 Bft)
27.06.2010 20:54 27,0 C 27,5 C 1,1 UV-I 0,0 C 45 % 42 % 0 % 1020,8 hPa 0,0 l/m 0,0 km/h (0 Bft) 0 min 0,0 km/h (0 Bft)
27.06.2010 20:56 27,0 C 27,3 C 1,1 UV-I 0,0 C 45 % 43 % 0 % 1020,8 hPa 0,0 l/m 0,0 km/h (0 Bft) 0 min 0,0 km/h (0 Bft)
27.06.2010 20:58 27,0 C 27,3 C 1,0 UV-I 0,0 C 45 % 44 % 0 % 1020,8 hPa 0,0 l/m 0,0 km/h (0 Bft) 0 min 0,0 km/h (0 Bft)
27.06.2010 21:00 27,0 C 27,1 C 1,0 UV-I 0,0 C 45 % 45 % 0 % 1020,8 hPa 0,0 l/m 0,0 km/h (0 Bft) 0 min 0,0 km/h (0 Bft)
27.06.2010 21:02 27,0 C 27,0 C 0,9 UV-I 0,0 C 45 % 46 % 0 % 1020,8 hPa 0,0 l/m 0,0 km/h (0 Bft) 0 min 0,0 km/h (0 Bft)
27.06.2010 21:04 26,9 C 27,0 C 0,9 UV-I 0,0 C 45 % 46 % 0 % 1020,8 hPa 0,0 l/m 0,0 km/h (0 Bft) 0 min 0,0 km/h (0 Bft)
27.06.2010 21:06 26,9 C 26,8 C 0,9 UV-I 0,0 C 45 % 46 % 0 % 1020,8 hPa 0,0 l/m 0,0 km/h (0 Bft) 0 min 0,0 km/h (0 Bft)
27.06.2010 21:08 26,9 C 26,8 C 0,8 UV-I 0,0 C 45 % 47 % 0 % 1020,8 hPa 0,0 l/m 0,0 km/h (0 Bft) 0 min 0,0 km/h (0 Bft)
27.06.2010 21:10 26,9 C 26,8 C 0,8 UV-I 0,0 C 45 % 47 % 0 % 1020,8 hPa 0,0 l/m 0,0 km/h (0 Bft) 0 min 0,0 km/h (0 Bft)
27.06.2010 21:12 26,9 C 26,6 C 0,7 UV-I 0,0 C 45 % 47 % 0 % 1020,9 hPa 0,0 l/m 0,0 km/h (0 Bft) 0 min 0,0 km/h (0 Bft)
27.06.2010 21:14 26,9 C 26,5 C 0,7 UV-I 0,0 C 45 % 47 % 0 % 1020,9 hPa 0,0 l/m 0,0 km/h (0 Bft) 0 min 0,0 km/h (0 Bft)
27.06.2010 21:16 26,9 C 26,4 C 0,7 UV-I 0,0 C 45 % 47 % 0 % 1020,9 hPa 0,0 l/m 0,0 km/h (0 Bft) 0 min 0,0 km/h (0 Bft)
27.06.2010 21:18 26,9 C 26,3 C 0,7 UV-I 0,0 C 46 % 49 % 0 % 1020,9 hPa 0,0 l/m 0,0 km/h (0 Bft) 0 min 0,0 km/h (0 Bft)
27.06.2010 21:20 26,8 C 26,3 C 0,7 UV-I 0,0 C 46 % 49 % 0 % 1020,9 hPa 0,0 l/m 0,0 km/h (0 Bft) 0 min 0,0 km/h (0 Bft)
27.06.2010 21:22 26,8 C 26,1 C 0,7 UV-I 0,0 C 46 % 50 % 0 % 1020,9 hPa 0,0 l/m 0,0 km/h (0 Bft) 0 min 0,0 km/h (0 Bft)
27.06.2010 21:24 26,8 C 26,0 C 0,7 UV-I 0,0 C 46 % 50 % 0 % 1020,9 hPa 0,0 l/m 0,0 km/h (0 Bft) 0 min 0,0 km/h (0 Bft)
27.06.2010 21:26 26,8 C 26,0 C 0,7 UV-I 0,0 C 46 % 50 % 0 % 1020,9 hPa 0,0 l/m 0,0 km/h (0 Bft) 0 min 0,0 km/h (0 Bft)
27.06.2010 21:28 26,8 C 25,9 C 0,5 UV-I 0,0 C 46 % 51 % 0 % 1020,9 hPa 0,0 l/m 0,0 km/h (0 Bft) 0 min 0,0 km/h (0 Bft)
27.06.2010 21:30 26,8 C 25,9 C 0,5 UV-I 0,0 C 46 % 51 % 0 % 1020,9 hPa 0,0 l/m 0,0 km/h (0 Bft) 0 min 0,0 km/h (0 Bft)
27.06.2010 21:32 26,8 C 25,7 C 0,4 UV-I 0,0 C 46 % 51 % 0 % 1020,9 hPa 0,0 l/m 0,0 km/h (0 Bft) 0 min 0,0 km/h (0 Bft)
27.06.2010 21:34 26,8 C 25,6 C 0,4 UV-I 0,0 C 46 % 50 % 0 % 1020,9 hPa 0,0 l/m 0,0 km/h (0 Bft) 0 min 0,0 km/h (0 Bft)
27.06.2010 21:36 26,8 C 25,6 C 0,4 UV-I 0,0 C 46 % 51 % 0 % 1020,9 hPa 0,0 l/m 0,0 km/h (0 Bft) 0 min 0,0 km/h (0 Bft)
27.06.2010 21:38 26,8 C 25,5 C 0,4 UV-I 0,0 C 46 % 50 % 0 % 1020,9 hPa 0,0 l/m 0,0 km/h (0 Bft) 0 min 0,0 km/h (0 Bft)
27.06.2010 21:40 26,8 C 25,4 C 0,4 UV-I 0,0 C 46 % 51 % 0 % 1020,9 hPa 0,0 l/m 0,0 km/h (0 Bft) 0 min 0,0 km/h (0 Bft)
27.06.2010 21:42 26,8 C 25,2 C 0,3 UV-I 0,0 C 46 % 51 % 0 % 1020,9 hPa 0,0 l/m 0,0 km/h (0 Bft) 0 min 0,0 km/h (0 Bft)
27.06.2010 21:44 26,7 C 25,2 C 0,3 UV-I 0,0 C 46 % 51 % 0 % 1020,9 hPa 0,0 l/m 0,0 km/h (0 Bft) 0 min 0,0 km/h (0 Bft)
27.06.2010 21:46 26,7 C 25,1 C 0,3 UV-I 0,0 C 46 % 52 % 0 % 1020,9 hPa 0,0 l/m 0,0 km/h (0 Bft) 0 min 0,0 km/h (0 Bft)
27.06.2010 21:48 26,7 C 25,1 C 0,3 UV-I 0,0 C 46 % 52 % 0 % 1020,9 hPa 0,0 l/m 0,0 km/h (0 Bft) 0 min 0,0 km/h (0 Bft)
27.06.2010 21:50 26,7 C 25,1 C 0,3 UV-I 0,0 C 46 % 52 % 0 % 1020,9 hPa 0,0 l/m 0,0 km/h (0 Bft) 0 min 0,0 km/h (0 Bft)
27.06.2010 21:52 26,6 C 24,9 C 0,2 UV-I 0,0 C 46 % 53 % 0 % 1020,9 hPa 0,0 l/m 0,0 km/h (0 Bft) 0 min 0,0 km/h (0 Bft)
27.06.2010 21:54 26,6 C 24,8 C 0,2 UV-I 0,0 C 46 % 53 % 0 % 1020,9 hPa 0,0 l/m 0,0 km/h (0 Bft) 0 min 0,0 km/h (0 Bft)
27.06.2010 21:56 26,6 C 24,6 C 0,2 UV-I 0,0 C 46 % 54 % 0 % 1020,9 hPa 0,0 l/m 0,0 km/h (0 Bft) 0 min 0,0 km/h (0 Bft)
27.06.2010 21:58 26,6 C 24,6 C 0,2 UV-I 0,0 C 46 % 54 % 0 % 1020,9 hPa 0,0 l/m 0,0 km/h (0 Bft) 0 min 0,0 km/h (0 Bft)
27.06.2010 22:00 26,6 C 24,5 C 0,2 UV-I 0,0 C 46 % 54 % 0 % 1020,9 hPa 0,0 l/m 0,0 km/h (0 Bft) 0 min 0,0 km/h (0 Bft)
27.06.2010 22:02 26,6 C 24,4 C 0,2 UV-I 0,0 C 46 % 55 % 0 % 1020,9 hPa 0,0 l/m 0,0 km/h (0 Bft) 0 min 0,0 km/h (0 Bft)
27.06.2010 22:04 26,6 C 24,4 C 0,2 UV-I 0,0 C 46 % 55 % 0 % 1020,9 hPa 0,0 l/m 0,0 km/h (0 Bft) 0 min 0,0 km/h (0 Bft)
27.06.2010 22:06 26,5 C 24,3 C 0,0 UV-I 0,0 C 47 % 55 % 0 % 1020,9 hPa 0,0 l/m 0,0 km/h (0 Bft) 0 min 0,0 km/h (0 Bft)
27.06.2010 22:08 26,5 C 24,3 C 0,1 UV-I 0,0 C 47 % 56 % 0 % 1020,9 hPa 0,0 l/m 0,0 km/h (0 Bft) 0 min 0,0 km/h (0 Bft)
27.06.2010 22:10 26,5 C 24,3 C 0,1 UV-I 0,0 C 47 % 56 % 0 % 1020,9 hPa 0,0 l/m 0,0 km/h (0 Bft) 0 min 0,0 km/h (0 Bft)
27.06.2010 22:12 26,5 C 24,0 C 0,1 UV-I 0,0 C 47 % 56 % 0 % 1021,1 hPa 0,0 l/m 0,0 km/h (0 Bft) 0 min 0,0 km/h (0 Bft)
27.06.2010 22:14 26,4 C 24,0 C 0,1 UV-I 0,0 C 47 % 56 % 0 % 1021,1 hPa 0,0 l/m 0,0 km/h (0 Bft) 0 min 0,0 km/h (0 Bft)
27.06.2010 22:16 26,4 C 23,9 C 0,1 UV-I 0,0 C 47 % 56 % 0 % 1021,1 hPa 0,0 l/m 0,0 km/h (0 Bft) 0 min 0,0 km/h (0 Bft)
27.06.2010 22:18 26,4 C 23,9 C 0,1 UV-I 0,0 C 47 % 57 % 0 % 1021,1 hPa 0,0 l/m 0,0 km/h (0 Bft) 0 min 0,0 km/h (0 Bft)
27.06.2010 22:20 26,4 C 23,8 C 0,1 UV-I 0,0 C 47 % 57 % 0 % 1021,1 hPa 0,0 l/m 0,0 km/h (0 Bft) 0 min 0,0 km/h (0 Bft)
27.06.2010 22:22 26,4 C 23,7 C 0,1 UV-I 0,0 C 47 % 57 % 0 % 1021,1 hPa 0,0 l/m 0,0 km/h (0 Bft) 0 min 0,0 km/h (0 Bft)
27.06.2010 22:26 26,2 C 23,5 C 0,1 UV-I 0,0 C 47 % 58 % 0 % 1021,1 hPa 0,0 l/m 0,0 km/h (0 Bft) 0 min 0,0 km/h (0 Bft)
27.06.2010 22:28 26,2 C 23,5 C 0,1 UV-I 0,0 C 47 % 58 % 0 % 1021,1 hPa 0,0 l/m 0,0 km/h (0 Bft) 0 min 0,0 km/h (0 Bft)
27.06.2010 22:30 26,2 C 23,5 C 0,1 UV-I 0,0 C 47 % 58 % 0 % 1021,1 hPa 0,0 l/m 0,0 km/h (0 Bft) 0 min 0,0 km/h (0 Bft)
27.06.2010 22:32 26,2 C 23,2 C 0,1 UV-I 0,0 C 47 % 58 % 0 % 1021,1 hPa 0,0 l/m 0,0 km/h (0 Bft) 0 min 0,0 km/h (0 Bft)
27.06.2010 22:34 26,2 C 23,2 C 0,1 UV-I 0,0 C 47 % 59 % 0 % 1021,1 hPa 0,0 l/m 0,0 km/h (0 Bft) 0 min 0,0 km/h (0 Bft)
27.06.2010 22:36 26,2 C 23,1 C 0,1 UV-I 0,0 C 47 % 59 % 0 % 1021,1 hPa 0,0 l/m 0,0 km/h (0 Bft) 0 min 0,0 km/h (0 Bft)
27.06.2010 22:38 26,2 C 23,0 C 0,1 UV-I 0,0 C 47 % 59 % 0 % 1021,1 hPa 0,0 l/m 0,0 km/h (0 Bft) 0 min 0,0 km/h (0 Bft)
27.06.2010 22:42 26,1 C 22,8 C 0,1 UV-I 0,0 C 48 % 59 % 0 % 1021,1 hPa 0,0 l/m 0,0 km/h (0 Bft) 0 min 0,0 km/h (0 Bft)
27.06.2010 22:44 26,1 C 22,8 C 0,1 UV-I 0,0 C 48 % 60 % 0 % 1021,1 hPa 0,0 l/m 0,0 km/h (0 Bft) 0 min 0,0 km/h (0 Bft)
27.06.2010 22:46 26,1 C 22,7 C 0,1 UV-I 0,0 C 48 % 60 % 0 % 1021,1 hPa 0,0 l/m 0,0 km/h (0 Bft) 0 min 0,0 km/h (0 Bft)
27.06.2010 22:48 26,1 C 22,6 C 0,1 UV-I 0,0 C 48 % 60 % 0 % 1021,1 hPa 0,0 l/m 0,0 km/h (0 Bft) 0 min 0,0 km/h (0 Bft)
27.06.2010 22:52 26,0 C 22,5 C 0,1 UV-I 0,0 C 48 % 61 % 0 % 1021,1 hPa 0,0 l/m 0,0 km/h (0 Bft) 0 min 0,0 km/h (0 Bft)
27.06.2010 22:54 26,0 C 22,5 C 0,1 UV-I 0,0 C 48 % 61 % 0 % 1021,1 hPa 0,0 l/m 0,0 km/h (0 Bft) 0 min 0,0 km/h (0 Bft)
27.06.2010 22:58 26,0 C 22,3 C 0,1 UV-I 0,0 C 48 % 61 % 0 % 1021,1 hPa 0,0 l/m 0,0 km/h (0 Bft) 0 min 0,0 km/h (0 Bft)
27.06.2010 23:00 26,0 C 22,2 C 0,1 UV-I 0,0 C 48 % 61 % 0 % 1021,1 hPa 0,0 l/m 0,0 km/h (0 Bft) 0 min 0,0 km/h (0 Bft)
27.06.2010 23:02 25,9 C 22,2 C 0,1 UV-I 0,0 C 48 % 62 % 0 % 1021,1 hPa 0,0 l/m 0,0 km/h (0 Bft) 0 min 0,0 km/h (0 Bft)
27.06.2010 23:04 25,9 C 22,1 C 0,1 UV-I 0,0 C 48 % 62 % 0 % 1021,1 hPa 0,0 l/m 0,0 km/h (0 Bft) 0 min 0,0 km/h (0 Bft)
27.06.2010 23:06 25,9 C 22,0 C 0,1 UV-I 0,0 C 48 % 62 % 0 % 1021,1 hPa 0,0 l/m 0,0 km/h (0 Bft) 0 min 0,0 km/h (0 Bft)
27.06.2010 23:08 25,9 C 22,0 C 0,1 UV-I 0,0 C 48 % 62 % 0 % 1021,1 hPa 0,0 l/m 0,0 km/h (0 Bft) 0 min 0,0 km/h (0 Bft)
27.06.2010 23:10 25,9 C 22,0 C 0,1 UV-I 0,0 C 48 % 62 % 0 % 1021,1 hPa 0,0 l/m 0,0 km/h (0 Bft) 0 min 0,0 km/h (0 Bft)
27.06.2010 23:12 25,8 C 21,8 C 0,1 UV-I 0,0 C 49 % 63 % 0 % 1021,1 hPa 0,0 l/m 0,0 km/h (0 Bft) 0 min 0,0 km/h (0 Bft)
27.06.2010 23:14 25,8 C 21,8 C 0,1 UV-I 0,0 C 49 % 63 % 0 % 1021,1 hPa 0,0 l/m 0,0 km/h (0 Bft) 0 min 0,0 km/h (0 Bft)
27.06.2010 23:16 25,8 C 21,7 C 0,1 UV-I 0,0 C 49 % 64 % 0 % 1021,1 hPa 0,0 l/m 0,0 km/h (0 Bft) 0 min 0,0 km/h (0 Bft)
27.06.2010 23:18 25,8 C 21,7 C 0,1 UV-I 0,0 C 49 % 64 % 0 % 1021,1 hPa 0,0 l/m 0,0 km/h (0 Bft) 0 min 0,0 km/h (0 Bft)
27.06.2010 23:20 25,8 C 21,6 C 0,1 UV-I 0,0 C 49 % 64 % 0 % 1021,1 hPa 0,0 l/m 0,0 km/h (0 Bft) 0 min 0,0 km/h (0 Bft)
27.06.2010 23:22 25,8 C 21,5 C 0,1 UV-I 0,0 C 49 % 65 % 0 % 1021,1 hPa 0,0 l/m 0,0 km/h (0 Bft) 0 min 0,0 km/h (0 Bft)
27.06.2010 23:26 25,7 C 21,5 C 0,1 UV-I 0,0 C 49 % 65 % 0 % 1021,1 hPa 0,0 l/m 0,0 km/h (0 Bft) 0 min 0,0 km/h (0 Bft)
27.06.2010 23:28 25,7 C 21,3 C 0,1 UV-I 0,0 C 49 % 65 % 0 % 1021,1 hPa 0,0 l/m 0,0 km/h (0 Bft) 0 min 0,0 km/h (0 Bft)
27.06.2010 23:30 25,7 C 21,3 C 0,1 UV-I 0,0 C 49 % 65 % 0 % 1021,1 hPa 0,0 l/m 0,0 km/h (0 Bft) 0 min 0,0 km/h (0 Bft)
27.06.2010 23:32 25,7 C 21,3 C 0,1 UV-I 0,0 C 49 % 65 % 0 % 1021,1 hPa 0,0 l/m 0,0 km/h (0 Bft) 0 min 0,0 km/h (0 Bft)
27.06.2010 23:34 25,7 C 21,2 C 0,1 UV-I 0,0 C 49 % 65 % 0 % 1021,1 hPa 0,0 l/m 0,0 km/h (0 Bft) 0 min 0,0 km/h (0 Bft)
27.06.2010 23:36 25,6 C 21,1 C 0,1 UV-I 0,0 C 49 % 65 % 0 % 1021,1 hPa 0,0 l/m 0,0 km/h (0 Bft) 0 min 0,0 km/h (0 Bft)
27.06.2010 23:38 25,6 C 21,1 C 0,1 UV-I 0,0 C 49 % 65 % 0 % 1021,1 hPa 0,0 l/m 0,0 km/h (0 Bft) 0 min 0,0 km/h (0 Bft)
27.06.2010 23:40 25,6 C 21,1 C 0,1 UV-I 0,0 C 49 % 65 % 0 % 1021,1 hPa 0,0 l/m 0,0 km/h (0 Bft) 0 min 0,0 km/h (0 Bft)
27.06.2010 23:42 25,6 C 21,0 C 0,1 UV-I 0,0 C 49 % 65 % 0 % 1021,1 hPa 0,0 l/m 0,0 km/h (0 Bft) 0 min 0,0 km/h (0 Bft)
27.06.2010 23:44 25,6 C 20,9 C 0,1 UV-I 0,0 C 49 % 65 % 0 % 1021,1 hPa 0,0 l/m 0,0 km/h (0 Bft) 0 min 0,0 km/h (0 Bft)
27.06.2010 23:46 25,6 C 20,9 C 0,1 UV-I 0,0 C 49 % 65 % 0 % 1021,1 hPa 0,0 l/m 0,0 km/h (0 Bft) 0 min 0,0 km/h (0 Bft)
27.06.2010 23:48 25,6 C 20,8 C 0,1 UV-I 0,0 C 49 % 65 % 0 % 1021,1 hPa 0,0 l/m 0,0 km/h (0 Bft) 0 min 0,0 km/h (0 Bft)
27.06.2010 23:50 25,6 C 20,8 C 0,1 UV-I 0,0 C 49 % 65 % 0 % 1021,1 hPa 0,0 l/m 0,0 km/h (0 Bft) 0 min 0,0 km/h (0 Bft)
27.06.2010 23:52 25,6 C 20,7 C 0,1 UV-I 0,0 C 50 % 66 % 0 % 1020,9 hPa 0,0 l/m 0,0 km/h (0 Bft) 0 min 0,0 km/h (0 Bft)
27.06.2010 23:54 25,6 C 20,7 C 0,1 UV-I 0,0 C 50 % 66 % 0 % 1020,9 hPa 0,0 l/m 0,0 km/h (0 Bft) 0 min 0,0 km/h (0 Bft)
27.06.2010 23:56 25,5 C 20,7 C 0,1 UV-I 0,0 C 50 % 66 % 0 % 1020,9 hPa 0,0 l/m 0,0 km/h (0 Bft) 0 min 0,0 km/h (0 Bft)
27.06.2010 23:58 25,5 C 20,7 C 0,1 UV-I 0,0 C 50 % 66 % 0 % 1020,9 hPa 0,0 l/m 0,0 km/h (0 Bft) 0 min 0,0 km/h (0 Bft)
_ Min-Zeit 07:04 05:48 22:06 00:03 17:00 14:34 00:03 02:13 - 00:03 - 00:03
Minimum _ 23,1 C 13,3 C 0,0 UV-I 0,0 C 40 % 33 % 0 % 1020,4 hPa - 0,0 km/h (0 Bft) - 0,0 km/h (0 Bft)
_ Max-Zeit 17:40 17:16 10:08 10:24 06:48 06:56 08:16 16:52 00:03 12:08 08:14 12:06
Maximum _ 29,2 C 31,1 C 15,9 UV-I 7,2 C 51 % 82 % 100 % 1024,8 hPa 0,0 l/m 8,4 km/h
SW (2 Bft)
2 min 23,5 km/h
W-SW (4 Bft)
Durchschnitt _ 25,2 C 22,7 C 5,0 UV-I 2,4 C 48 % 55 % 45 % 1021,6 hPa #0,0 l/m 1,8 km/h (1 Bft) #9:15 h 2,2 km/h (1 Bft)
© 2012 W. Hausmann